K3TXT Weather Reports


time (UTC)temp
C
wind
direction
speed
KPH
gust
KPH
rain 1hr
cm
rain 24hr
cm
rain mn
cm
humidity
%
barometer
mb
20260506044649 19 193 1.6 4.8 0.00 0.00 0.00 100 1017.9
20260506044549 19 193 1.6 4.8 0.00 0.00 0.00 100 1017.8
20260506044448 19 193 1.6 4.8 0.00 0.00 0.00 100 1017.8
20260506044348 19 193 1.6 4.8 0.00 0.00 0.00 100 1017.9
20260506044247 19 193 1.6 6.4 0.00 0.00 0.00 100 1017.9
20260506044149 19 193 1.6 6.4 0.00 0.00 0.00 100 1018.0
20260506044047 19 193 1.6 6.4 0.00 0.00 0.00 100 1017.9
20260506043949 19 193 1.6 6.4 0.00 0.00 0.00 100 1018.0
20260506043847 19 193 3.2 6.4 0.00 0.00 0.00 100 1017.9
20260506043747 19 193 3.2 6.4 0.00 0.00 0.00 100 1018.1
20260506043647 19 193 3.2 6.4 0.00 0.00 0.00 100 1018.1
20260506043549 19 194 3.2 6.4 0.00 0.00 0.00 100 1018.1
20260506043448 19 194 3.2 6.4 0.00 0.00 0.00 100 1018.1
20260506043348 19 194 3.2 6.4 0.00 0.00 0.00 100 1018.1
20260506043248 19 192 3.2 4.8 0.00 0.00 0.00 100 1018.1
20260506043149 19 192 3.2 4.8 0.00 0.00 0.00 100 1018.0
20260506043048 19 192 3.2 4.8 0.00 0.00 0.00 100 1018.1
20260506042948 19 192 3.2 4.8 0.00 0.00 0.00 100 1018.1
20260506042849 19 192 3.2 4.8 0.00 0.00 0.00 100 1018.1
20260506042749 19 192 3.2 4.8 0.00 0.00 0.00 100 1018.1
20260506042648 19 192 3.2 4.8 0.00 0.00 0.00 100 1018.1
20260506042608 19 192 3.2 4.8 0.00 0.00 0.00 100 1018.0
20260506042449 19 192 3.2 4.8 0.00 0.00 0.00 100 1018.0
20260506042349 19 192 3.2 4.8 0.00 0.00 0.00 100 1018.0
20260506042248 19 192 3.2 4.8 0.00 0.00 0.00 100 1018.1
20260506042149 19 192 1.6 4.8 0.00 0.00 0.00 100 1018.0
20260506042109 19 192 1.6 4.8 0.00 0.00 0.00 100 1018.1
20260506041949 19 192 1.6 4.8 0.00 0.00 0.00 100 1018.1
20260506041847 19 193 1.6 6.4 0.00 0.00 0.00 100 1018.1
20260506041748 19 193 1.6 6.4 0.00 0.00 0.00 100 1018.1
20260506041648 19 193 1.6 6.4 0.00 0.00 0.00 100 1018.1
20260506041548 19 193 1.6 6.4 0.00 0.00 0.00 100 1018.1
20260506041447 19 193 1.6 6.4 0.00 0.00 0.00 100 1018.1
20260506041348 19 192 1.6 6.4 0.00 0.00 0.00 100 1018.1
20260506041248 19 192 1.6 6.4 0.00 0.00 0.00 100 1018.2
20260506041147 19 192 1.6 6.4 0.00 0.00 0.00 100 1018.2
20260506041046 19 221 1.6 6.4 0.00 0.00 0.00 100 1018.2
20260506040946 19 221 1.6 6.4 0.00 0.00 0.00 100 1018.2
20260506040846 19 221 1.6 6.4 0.00 0.00 0.00 100 1018.2
20260506040746 19 221 1.6 6.4 0.00 0.00 0.00 100 1018.2
20260506040642 19 221 1.6 6.4 0.00 0.00 0.00 100 1018.2
20260506040543 19 224 1.6 6.4 0.00 0.00 0.00 100 1018.2
20260506040442 19 224 1.6 6.4 0.00 0.00 0.00 100 1018.3
20260506040343 19 224 1.6 4.8 0.00 0.00 0.00 100 1018.3
20260506040243 19 224 1.6 4.8 0.00 0.00 0.00 100 1018.3
20260506040141 19 224 1.6 4.8 0.00 0.00 0.00 100 1018.4
20260506040101 19 224 1.6 4.8 0.00 0.00 0.00 100 1018.4
20260506035940 19 224 1.6 4.8 0.00 0.00 0.00 100 1018.3
20260506035839 19 224 1.6 4.8 0.00 0.00 0.00 100 1018.4
20260506035737 19 224 1.6 6.4 0.00 0.00 0.00 100 1018.4
20260506035634 19 224 1.6 6.4 0.00 0.00 0.00 100 1018.3
20260506035533 19 224 1.6 6.4 0.00 0.00 0.00 100 1018.4
20260506035431 19 224 1.6 6.4 0.00 0.00 0.00 100 1018.4
20260506035330 19 224 1.6 6.4 0.00 0.00 0.00 100 1018.3
20260506035231 19 224 1.6 6.4 0.00 0.00 0.00 100 1018.4
20260506035133 19 224 1.6 6.4 0.00 0.00 0.00 100 1018.3
20260506035030 19 224 1.6 6.4 0.00 0.00 0.00 100 1018.4
20260506034930 19 224 1.6 6.4 0.00 0.00 0.00 100 1018.4
20260506034831 19 224 1.6 6.4 0.00 0.00 0.00 100 1018.3
20260506034731 19 224 1.6 4.8 0.00 0.00 0.00 100 1018.3
20260506034629 18 224 1.6 4.8 0.00 0.00 0.00 100 1018.4
20260506034531 18 224 1.6 4.8 0.00 0.00 0.00 100 1018.4
20260506034430 18 224 1.6 4.8 0.00 0.00 0.00 100 1018.3
20260506034327 18 224 1.6 4.8 0.00 0.00 0.00 100 1018.3
20260506034225 18 224 1.6 4.8 0.00 0.00 0.00 100 1018.4
20260506034122 18 224 1.6 4.8 0.00 0.00 0.00 100 1018.4
20260506034056 18 224 1.6 4.8 0.00 0.00 0.00 100 1018.4
20260506033922 18 224 1.6 4.8 0.00 0.00 0.00 100 1018.4
20260506033823 18 224 1.6 4.8 0.00 0.00 0.00 100 1018.4
20260506033721 18 224 1.6 4.8 0.00 0.00 0.00 100 1018.4
20260506033622 18 224 1.6 4.8 0.00 0.00 0.00 100 1018.4
20260506033521 18 224 1.6 4.8 0.00 0.00 0.00 100 1018.4
20260506033421 18 224 3.2 4.8 0.00 0.00 0.00 100 1018.4
20260506033321 18 224 3.2 4.8 0.00 0.00 0.00 100 1018.4
20260506033223 18 224 3.2 4.8 0.00 0.00 0.00 100 1018.4
20260506033123 18 224 3.2 4.8 0.00 0.00 0.00 100 1018.6
20260506033023 18 224 3.2 4.8 0.00 0.00 0.00 100 1018.6
20260506032923 18 224 3.2 4.8 0.00 0.00 0.00 100 1018.4
20260506032819 18 224 3.2 4.8 0.00 0.00 0.00 100 1018.6
20260506032715 18 224 3.2 4.8 0.00 0.00 0.00 100 1018.4
20260506032617 18 224 3.2 4.8 0.00 0.00 0.00 100 1018.4
20260506032514 18 224 3.2 4.8 0.00 0.00 0.00 100 1018.4
20260506032413 18 224 3.2 4.8 0.00 0.00 0.00 100 1018.6
20260506032313 18 224 3.2 4.8 0.00 0.00 0.00 100 1018.4
20260506032212 18 224 3.2 4.8 0.00 0.00 0.00 100 1018.6
20260506032110 18 224 3.2 4.8 0.00 0.00 0.00 100 1018.6
20260506032011 18 224 3.2 4.8 0.00 0.00 0.00 100 1018.6
20260506031907 18 224 1.6 4.8 0.00 0.00 0.00 100 1018.6
20260506031807 18 224 1.6 4.8 0.00 0.00 0.00 100 1018.6
20260506031706 18 224 1.6 4.8 0.00 0.00 0.00 100 1018.6
20260506031605 18 224 1.6 4.8 0.00 0.00 0.00 100 1018.6
20260506031507 18 224 1.6 4.8 0.00 0.00 0.00 100 1018.7
20260506031406 18 224 1.6 4.8 0.00 0.00 0.00 100 1018.6
20260506031304 18 224 1.6 4.8 0.00 0.00 0.00 100 1018.6
20260506031205 18 224 1.6 4.8 0.00 0.00 0.00 100 1018.6
20260506031104 18 224 1.6 4.8 0.00 0.00 0.00 100 1018.6
20260506031001 18 224 1.6 4.8 0.00 0.00 0.00 100 1018.6
20260506030901 18 224 1.6 4.8 0.00 0.00 0.00 100 1018.6
20260506030801 18 224 1.6 4.8 0.00 0.00 0.00 100 1018.6
20260506030701 18 224 1.6 4.8 0.00 0.00 0.00 100 1018.4
20260506030600 18 224 1.6 4.8 0.00 0.00 0.00 100 1018.4
20260506030546 18 224 1.6 4.8 0.00 0.00 0.00 100 1018.6
20260506030355 18 224 1.6 4.8 0.00 0.00 0.00 100 1018.6
20260506030255 18 224 3.2 4.8 0.00 0.00 0.00 100 1018.6
20260506030155 18 224 3.2 4.8 0.00 0.00 0.00 100 1018.6
20260506030053 18 224 3.2 4.8 0.00 0.00 0.00 100 1018.7
20260506025953 18 224 3.2 4.8 0.00 0.00 0.00 100 1018.7
20260506025851 18 224 3.2 6.4 0.00 0.00 0.00 100 1018.7
20260506025752 18 224 3.2 6.4 0.00 0.00 0.00 100 1018.7
20260506025650 18 224 3.2 6.4 0.00 0.00 0.00 100 1018.7
20260506025548 18 224 3.2 6.4 0.00 0.00 0.00 100 1018.7
20260506025347 18 224 3.2 6.4 0.00 0.00 0.00 100 1018.6
20260506025248 18 224 3.2 6.4 0.00 0.00 0.00 100 1018.6
20260506025145 18 224 3.2 6.4 0.00 0.00 0.00 100 1018.6
20260506025046 18 224 3.2 6.4 0.00 0.00 0.00 100 1018.6
20260506024845 18 224 3.2 6.4 0.00 0.00 0.00 100 1018.7
20260506024744 18 224 3.2 6.4 0.00 0.00 0.00 100 1018.6
20260506024643 18 224 3.2 6.4 0.00 0.00 0.00 100 1018.6
20260506024541 18 224 3.2 6.4 0.00 0.00 0.00 100 1018.6
20260506024338 18 224 3.2 6.4 0.00 0.00 0.00 100 1018.6
20260506024237 18 224 3.2 6.4 0.00 0.00 0.00 100 1018.6
20260506024135 18 224 3.2 6.4 0.00 0.00 0.00 100 1018.7
20260506024034 18 224 3.2 6.4 0.00 0.00 0.00 100 1018.6
20260506023833 18 224 3.2 4.8 0.00 0.00 0.00 100 1018.4
20260506023733 18 224 3.2 4.8 0.00 0.00 0.00 100 1018.6
20260506023631 18 224 3.2 4.8 0.00 0.00 0.00 100 1018.6
20260506023549 18 224 3.2 4.8 0.00 0.00 0.00 100 1018.4
20260506023430 18 224 3.2 4.8 0.00 0.00 0.00 100 1018.6
20260506023330 18 224 1.6 4.8 0.00 0.00 0.00 100 1018.4
20260506023229 18 224 1.6 4.8 0.00 0.00 0.00 100 1018.4
20260506023129 18 224 1.6 4.8 0.00 0.00 0.00 100 1018.4
20260506023026 18 223 1.6 4.8 0.00 0.00 0.00 100 1018.4
20260506022926 18 223 1.6 4.8 0.00 0.00 0.00 100 1018.4
20260506022826 18 223 1.6 4.8 0.00 0.00 0.00 100 1018.4
20260506022725 18 223 0.0 4.8 0.00 0.00 0.00 100 1018.6
20260506022623 18 223 1.6 4.8 0.00 0.00 0.00 100 1018.6
20260506022548 18 223 1.6 4.8 0.00 0.00 0.00 100 1018.4
20260506022422 18 223 1.6 4.8 0.00 0.00 0.00 100 1018.6
20260506022321 18 223 1.6 4.8 0.00 0.00 0.00 100 1018.4
20260506022221 18 223 1.6 4.8 0.00 0.00 0.00 100 1018.4
20260506022120 18 223 1.6 4.8 0.00 0.00 0.00 100 1018.4
20260506022021 18 223 1.6 4.8 0.00 0.00 0.00 100 1018.6
20260506021919 18 223 3.2 4.8 0.00 0.00 0.00 100 1018.6
20260506021817 18 223 3.2 4.8 0.00 0.00 0.00 100 1018.6
20260506021717 18 223 3.2 6.4 0.00 0.00 0.00 100 1018.7
20260506021616 18 223 3.2 6.4 0.00 0.00 0.00 100 1018.7
20260506021514 18 223 3.2 6.4 0.00 0.00 0.00 100 1018.6
20260506021414 18 223 3.2 6.4 0.00 0.00 0.00 100 1018.7
20260506021314 18 223 3.2 6.4 0.00 0.00 0.00 100 1018.7
20260506021213 18 223 3.2 6.4 0.00 0.00 0.00 100 1018.7
20260506021111 18 223 3.2 6.4 0.00 0.00 0.00 100 1018.6
20260506021013 18 223 3.2 6.4 0.00 0.00 0.00 100 1018.6
20260506020913 18 223 3.2 6.4 0.00 0.00 0.00 100 1018.7
20260506020811 18 223 3.2 6.4 0.00 0.00 0.00 100 1018.6
20260506020710 18 223 3.2 6.4 0.00 0.00 0.00 100 1018.7
20260506020607 18 223 3.2 6.4 0.00 0.00 0.00 100 1018.6
20260506020509 18 223 3.2 6.4 0.00 0.00 0.00 100 1018.6
20260506020406 18 223 3.2 6.4 0.00 0.00 0.00 100 1018.6
20260506020305 18 223 3.2 6.4 0.00 0.00 0.00 100 1018.4
20260506020205 18 223 3.2 6.4 0.00 0.00 0.00 100 1018.6
20260506020104 18 223 3.2 6.4 0.00 0.00 0.00 100 1018.6
20260506020002 18 223 3.2 6.4 0.00 0.00 0.00 100 1018.6
20260506015903 18 223 3.2 6.4 0.00 0.00 0.00 100 1018.7
20260506015801 18 224 1.6 6.4 0.00 0.00 0.00 100 1018.6
20260506015701 18 223 1.6 6.4 0.00 0.00 0.00 100 1018.6
20260506015559 18 223 1.6 4.8 0.00 0.00 0.00 100 1018.6
20260506015541 18 223 1.6 4.8 0.00 0.00 0.00 100 1018.4
20260506015357 18 223 1.6 3.2 0.00 0.00 0.00 100 1018.6
20260506015257 18 223 1.6 3.2 0.00 0.00 0.00 100 1018.6
20260506015157 18 223 1.6 4.8 0.00 0.00 0.00 100 1018.6
20260506015055 18 223 1.6 4.8 0.00 0.00 0.00 100 1018.6
20260506014957 18 223 1.6 4.8 0.00 0.00 0.00 100 1018.6
20260506014855 18 223 1.6 4.8 0.00 0.00 0.00 100 1018.6
20260506014753 18 223 1.6 4.8 0.00 0.00 0.00 100 1018.6
20260506014654 18 223 1.6 4.8 0.00 0.00 0.00 100 1018.4
20260506014551 18 223 1.6 4.8 0.00 0.00 0.00 100 1018.6
20260506014351 18 223 1.6 4.8 0.00 0.00 0.00 100 1018.4
20260506014251 18 223 1.6 4.8 0.00 0.00 0.00 100 1018.6
20260506014150 18 223 1.6 4.8 0.00 0.00 0.00 100 1018.6
20260506014055 18 223 1.6 4.8 0.00 0.00 0.00 100 1018.6
20260506014038 18 223 1.6 4.8 0.00 0.00 0.00 100 1018.6
20260506013846 18 223 1.6 4.8 0.00 0.00 0.00 100 1018.6
20260506013746 18 223 1.6 4.8 0.00 0.00 0.00 100 1018.6
20260506013646 18 223 1.6 4.8 0.00 0.00 0.00 100 1018.7
20260506013545 18 223 1.6 4.8 0.00 0.00 0.00 100 1018.6
20260506013343 18 223 1.6 4.8 0.00 0.00 0.00 100 1018.6
20260506013243 18 223 1.6 4.8 0.00 0.00 0.00 100 1018.6
20260506013143 18 223 1.6 4.8 0.00 0.00 0.00 100 1018.6
20260506013040 18 223 1.6 4.8 0.00 0.00 0.00 100 1018.6
20260506012838 18 223 1.6 4.8 0.00 0.00 0.00 100 1018.6
20260506012737 18 223 1.6 4.8 0.00 0.00 0.00 100 1018.6
20260506012637 18 223 1.6 4.8 0.00 0.00 0.00 100 1018.4
20260506012537 18 223 1.6 4.8 0.00 0.00 0.00 100 1018.4
20260506012333 18 224 1.6 4.8 0.00 0.00 0.00 100 1018.6
20260506012235 18 224 1.6 4.8 0.00 0.00 0.00 100 1018.4
20260506012135 18 224 1.6 4.8 0.00 0.00 0.00 100 1018.6
20260506012052 18 224 1.6 4.8 0.00 0.00 0.00 100 1018.6
20260506012037 18 224 1.6 4.8 0.00 0.00 0.00 100 1018.6
20260506011831 18 224 1.6 4.8 0.00 0.00 0.00 100 1018.6
20260506011730 18 224 1.6 4.8 0.00 0.00 0.00 100 1018.6
20260506011629 18 224 1.6 4.8 0.00 0.00 0.00 100 1018.6
20260506011529 18 224 1.6 4.8 0.00 0.00 0.00 100 1018.6
20260506011429 19 224 1.6 3.2 0.00 0.00 0.00 100 1018.6
20260506011325 19 224 1.6 3.2 0.00 0.00 0.00 100 1018.4
20260506011225 19 224 0.0 3.2 0.00 0.00 0.00 100 1018.6
20260506011126 19 224 0.0 3.2 0.00 0.00 0.00 100 1018.4
20260506011024 19 224 0.0 3.2 0.00 0.00 0.00 100 1018.4
20260506010923 19 224 0.0 3.2 0.00 0.00 0.00 100 1018.4
20260506010822 19 224 0.0 3.2 0.00 0.00 0.00 100 1018.4
20260506010721 19 224 0.0 3.2 0.00 0.00 0.00 100 1018.3
20260506010621 19 224 0.0 3.2 0.00 0.00 0.00 100 1018.4
20260506010519 19 224 1.6 3.2 0.00 0.00 0.00 100 1018.3
20260506010421 19 224 0.0 3.2 0.00 0.00 0.00 100 1018.2
20260506010319 19 224 0.0 3.2 0.00 0.00 0.00 100 1018.2
20260506010218 19 224 1.6 3.2 0.00 0.00 0.00 100 1018.3
20260506010118 19 224 1.6 3.2 0.00 0.00 0.00 100 1018.2
20260506010043 19 224 1.6 3.2 0.00 0.00 0.00 100 1018.3
20260506005916 19 223 1.6 3.2 0.00 0.00 0.00 100 1018.3
20260506005814 19 223 1.6 4.8 0.00 0.00 0.00 100 1018.3
20260506005713 19 224 1.6 4.8 0.00 0.00 0.00 100 1018.3
20260506005613 19 224 1.6 4.8 0.00 0.00 0.00 100 1018.2
20260506005512 19 224 1.6 4.8 0.00 0.00 0.00 100 1018.2
20260506005412 19 223 1.6 4.8 0.00 0.00 0.00 100 1018.1
20260506005312 19 224 1.6 4.8 0.00 0.00 0.00 100 1018.1
20260506005212 19 224 1.6 4.8 0.00 0.00 0.00 100 1018.2
20260506005113 19 223 3.2 4.8 0.00 0.00 0.00 100 1018.2
20260506005013 19 224 3.2 4.8 0.00 0.00 0.00 100 1018.1
20260506004911 19 224 3.2 4.8 0.00 0.00 0.00 100 1018.2
20260506004809 19 224 1.6 4.8 0.00 0.00 0.00 100 1018.2
20260506004707 19 224 3.2 4.8 0.00 0.00 0.00 100 1018.2
20260506004607 19 223 3.2 6.4 0.00 0.00 0.00 100 1018.1
20260506004507 19 224 3.2 6.4 0.00 0.00 0.00 100 1018.1
20260506004406 19 224 3.2 8.0 0.00 0.00 0.00 100 1018.1
20260506004305 19 224 3.2 8.0 0.00 0.00 0.00 100 1018.1
20260506004204 19 224 3.2 8.0 0.00 0.00 0.00 100 1018.1
20260506004103 19 224 3.2 8.0 0.00 0.00 0.00 100 1018.1
20260506004005 19 224 3.2 8.0 0.00 0.00 0.00 100 1018.1
20260506003903 19 224 3.2 8.0 0.00 0.00 0.00 100 1018.1
20260506003803 19 224 3.2 8.0 0.00 0.00 0.00 100 1018.1
20260506003703 19 224 3.2 8.0 0.00 0.00 0.00 100 1018.1
20260506003603 19 224 3.2 8.0 0.00 0.00 0.00 100 1018.1
20260506003503 19 224 3.2 8.0 0.00 0.00 0.00 100 1018.0
20260506003404 19 224 3.2 8.0 0.00 0.00 0.00 100 1018.1
20260506003305 19 224 3.2 8.0 0.00 0.00 0.00 100 1018.1
20260506003203 19 224 4.8 8.0 0.00 0.00 0.00 100 1018.1
20260506003103 19 224 4.8 8.0 0.00 0.00 0.00 100 1018.0
20260506003004 19 224 4.8 9.7 0.00 0.00 0.00 100 1018.1
20260506002904 19 224 4.8 9.7 0.00 0.00 0.00 100 1018.1
20260506002803 19 224 4.8 9.7 0.00 0.00 0.00 100 1018.1
20260506002705 20 224 4.8 9.7 0.00 0.00 0.00 100 1018.1
20260506002603 20 224 4.8 9.7 0.00 0.00 0.00 100 1018.0
20260506002504 19 224 4.8 9.7 0.00 0.00 0.00 100 1018.1
20260506002401 20 224 3.2 9.7 0.00 0.00 0.00 100 1018.0
20260506002301 20 224 3.2 9.7 0.00 0.00 0.00 100 1018.0
20260506002202 20 223 3.2 9.7 0.00 0.00 0.00 100 1018.0
20260506002101 20 223 3.2 9.7 0.00 0.00 0.00 100 1018.0
20260506002001 20 223 3.2 6.4 0.00 0.00 0.00 100 1018.1
20260506001902 20 223 3.2 6.4 0.00 0.00 0.00 100 1018.0
20260506001801 20 223 3.2 6.4 0.00 0.00 0.00 100 1018.1
20260506001701 20 223 3.2 8.0 0.00 0.00 0.00 100 1018.0
20260506001602 20 222 3.2 8.0 0.00 0.00 0.00 100 1018.1
20260506001501 20 222 3.2 8.0 0.00 0.00 0.00 100 1018.0
20260506001401 20 222 3.2 8.0 0.00 0.00 0.00 100 1018.0
20260506001301 20 222 3.2 8.0 0.00 0.00 0.00 100 1018.2
20260506001202 20 222 3.2 8.0 0.00 0.00 0.00 100 1018.1
20260506001101 20 222 3.2 8.0 0.00 0.00 0.00 100 1018.0
20260506001001 20 222 3.2 8.0 0.00 0.00 0.00 100 1018.0
20260506000902 20 225 3.2 8.0 0.00 0.00 0.00 100 1018.1
20260506000800 20 225 3.2 8.0 0.00 0.00 0.00 100 1018.1
20260506000659 20 224 3.2 6.4 0.00 0.00 0.00 100 1018.1
20260506000600 20 224 3.2 6.4 0.00 0.00 0.00 100 1018.0
20260506000501 20 224 3.2 6.4 0.00 0.00 0.00 100 1018.0
20260506000401 20 224 3.2 8.0 0.00 0.00 0.00 100 1018.1
20260506000302 20 224 3.2 8.0 0.00 0.00 0.00 100 1018.1
20260506000201 20 224 3.2 8.0 0.00 0.00 0.00 100 1018.1
20260506000059 20 224 3.2 8.0 0.00 0.00 0.00 100 1018.1
20260506000039 20 224 3.2 8.0 0.00 0.00 0.00 100 1018.1
20260505235900 20 224 3.2 8.0 0.00 0.00 0.00 100 1018.1
20260505235759 20 224 3.2 8.0 0.00 0.00 0.00 100 1018.1
20260505235659 20 225 3.2 9.7 0.00 0.00 0.00 100 1018.1
20260505235559 20 225 3.2 9.7 0.00 0.00 0.00 100 1018.0
20260505235500 20 225 3.2 9.7 0.00 0.00 0.00 100 1018.0
20260505235400 20 225 3.2 9.7 0.00 0.00 0.00 100 1018.1
20260505235259 20 225 4.8 9.7 0.00 0.00 0.00 100 1018.1
20260505235158 20 225 4.8 9.7 0.00 0.00 0.00 100 1018.1
20260505235100 20 225 3.2 9.7 0.00 0.00 0.00 100 1018.0
20260505235000 20 225 3.2 9.7 0.00 0.00 0.00 100 1018.1
20260505234857 20 225 3.2 9.7 0.00 0.00 0.00 100 1018.0
20260505234756 20 225 3.2 9.7 0.00 0.00 0.00 100 1018.1
20260505234656 20 225 3.2 9.7 0.00 0.00 0.00 100 1018.0
20260505234556 20 225 3.2 9.7 0.00 0.00 0.00 100 1018.1
20260505234456 20 225 4.8 9.7 0.00 0.00 0.00 100 1018.0
20260505234355 20 225 3.2 9.7 0.00 0.00 0.00 100 1018.0
20260505234253 20 225 3.2 9.7 0.00 0.00 0.00 100 1017.9
20260505234152 20 225 4.8 9.7 0.00 0.00 0.00 100 1018.0
20260505234052 20 225 4.8 9.7 0.00 0.00 0.00 100 1018.0
20260505233950 20 225 4.8 9.7 0.00 0.00 0.00 100 1018.0
20260505233852 20 225 4.8 9.7 0.00 0.00 0.00 100 1017.9
20260505233752 20 223 4.8 9.7 0.00 0.00 0.00 100 1018.0
20260505233649 20 223 4.8 9.7 0.00 0.00 0.00 100 1018.0
20260505233549 20 223 4.8 9.7 0.00 0.00 0.00 100 1018.0
20260505233448 20 223 4.8 9.7 0.00 0.00 0.00 100 1018.1
20260505233347 20 223 4.8 9.7 0.00 0.00 0.00 100 1018.1
20260505233247 20 223 3.2 9.7 0.00 0.00 0.00 100 1018.1
20260505233146 20 225 3.2 8.0 0.00 0.00 0.00 100 1018.1
20260505233046 20 225 3.2 8.0 0.00 0.00 0.00 100 1018.1
20260505232945 20 225 3.2 8.0 0.00 0.00 0.00 100 1018.1
20260505232845 20 225 4.8 8.0 0.00 0.00 0.00 100 1018.0
20260505232744 20 226 4.8 11.3 0.00 0.00 0.00 100 1018.1
20260505232643 20 225 4.8 11.3 0.00 0.00 0.00 100 1018.1
20260505232544 20 225 4.8 11.3 0.00 0.00 0.00 100 1018.1
20260505232443 20 225 4.8 11.3 0.00 0.00 0.00 100 1018.1
20260505232344 20 225 4.8 12.9 0.00 0.00 0.00 100 1018.2
20260505232242 20 225 4.8 12.9 0.00 0.00 0.00 100 1018.1
20260505232141 20 225 4.8 12.9 0.00 0.00 0.00 100 1018.2
20260505232040 20 225 4.8 12.9 0.00 0.00 0.00 100 1018.1
20260505231837 21 225 4.8 12.9 0.00 0.00 0.00 100 1018.2
20260505231736 21 221 4.8 12.9 0.00 0.00 0.00 100 1018.2
20260505231637 21 221 4.8 12.9 0.00 0.00 0.00 100 1018.1
20260505231537 21 221 4.8 12.9 0.00 0.00 0.00 100 1018.1
20260505231334 21 218 4.8 12.9 0.00 0.00 0.00 100 1018.2
20260505231234 21 217 4.8 12.9 0.00 0.00 0.00 100 1018.2
20260505231133 21 222 4.8 12.9 0.00 0.00 0.00 100 1018.2
20260505231034 21 222 6.4 12.9 0.00 0.00 0.00 100 1018.1
20260505230832 21 222 6.4 12.9 0.00 0.00 0.00 100 1018.2
20260505230729 21 222 6.4 12.9 0.00 0.00 0.00 100 1018.2
20260505230629 21 222 4.8 12.9 0.00 0.00 0.00 100 1018.1
20260505230529 21 219 4.8 12.9 0.00 0.00 0.00 100 1018.2
20260505230329 21 207 6.4 12.9 0.00 0.00 0.00 100 1018.3
20260505230230 21 207 6.4 14.5 0.00 0.00 0.00 100 1018.2
20260505230129 21 223 6.4 14.5 0.00 0.00 0.00 100 1018.2
20260505230038 21 223 4.8 14.5 0.00 0.00 0.00 100 1018.1
20260505230023 21 215 4.8 14.5 0.00 0.00 0.00 100 1018.2
20260505225830 21 215 4.8 14.5 0.00 0.00 0.00 100 1018.3
20260505225731 21 214 4.8 14.5 0.00 0.00 0.00 100 1018.2
20260505225629 21 213 6.4 14.5 0.00 0.00 0.00 100 1018.2
20260505225537 21 213 6.4 14.5 0.00 0.00 0.00 100 1018.2
20260505225521 21 212 6.4 14.5 0.00 0.00 0.00 100 1018.3
20260505225325 21 221 6.4 14.5 0.00 0.00 0.00 100 1018.3
20260505225226 21 220 6.4 12.9 0.00 0.00 0.00 100 1018.3
20260505225124 21 218 6.4 12.9 0.00 0.00 0.00 100 1018.6
20260505225027 21 217 6.4 12.9 0.00 0.00 0.00 100 1018.4
20260505224824 21 215 4.8 12.9 0.00 0.00 0.00 100 1018.4
20260505224723 21 215 6.4 12.9 0.00 0.00 0.00 100 1018.6
20260505224623 21 227 6.4 14.5 0.00 0.00 0.00 100 1018.6
20260505224537 21 227 6.4 14.5 0.00 0.00 0.00 100 1018.4
20260505224522 21 223 4.8 14.5 0.00 0.00 0.00 100 1018.4
20260505224322 21 222 6.4 14.5 0.00 0.00 0.00 100 1018.4
20260505224218 21 223 6.4 14.5 0.00 0.00 0.00 100 1018.6
20260505224120 21 221 6.4 14.5 0.00 0.00 0.00 100 1018.4
20260505224021 21 221 6.4 14.5 0.00 0.00 0.00 100 1018.4
20260505223817 21 221 6.4 14.5 0.00 0.00 0.00 100 1018.4
20260505223715 21 230 6.4 14.5 0.00 0.00 0.00 100 1018.4
20260505223615 21 221 6.4 12.9 0.00 0.00 0.00 100 1018.4
20260505223533 21 227 6.4 12.9 0.00 0.00 0.00 100 1018.4
20260505223517 21 219 6.4 12.9 0.00 0.00 0.00 100 1018.3
20260505223313 21 221 4.8 12.9 0.00 0.00 0.00 100 1018.3
20260505223213 22 225 4.8 12.9 0.00 0.00 0.00 100 1018.3
20260505223113 22 212 4.8 12.9 0.00 0.00 0.00 100 1018.3
20260505223013 22 211 4.8 12.9 0.00 0.00 0.00 100 1018.3
20260505222814 22 213 4.8 12.9 0.00 0.00 0.00 100 1018.3
20260505222714 22 206 4.8 9.7 0.00 0.00 0.00 100 1018.3
20260505222614 22 201 4.8 9.7 0.00 0.00 0.00 100 1018.3
20260505222514 22 199 4.8 9.7 0.00 0.00 0.00 100 1018.3
20260505222313 22 214 4.8 9.7 0.00 0.00 0.00 100 1018.3
20260505222211 22 213 4.8 9.7 0.00 0.00 0.00 100 1018.2
20260505222111 22 194 4.8 14.5 0.00 0.00 0.00 100 1018.2
20260505222012 22 165 4.8 14.5 0.00 0.00 0.00 100 1018.3
20260505221812 22 221 4.8 14.5 0.00 0.00 0.00 100 1018.3
20260505221711 22 221 4.8 14.5 0.00 0.00 0.00 100 1018.2
20260505221610 22 221 3.2 14.5 0.00 0.00 0.00 100 1018.3
20260505221511 22 221 3.2 14.5 0.00 0.00 0.00 100 1018.3
20260505221311 22 205 3.2 14.5 0.00 0.00 0.00 100 1018.2
20260505221212 22 214 3.2 14.5 0.00 0.00 0.00 100 1018.3
20260505221109 22 244 3.2 9.7 0.00 0.00 0.00 100 1018.2
20260505221009 22 222 3.2 9.7 0.00 0.00 0.00 100 1018.1
20260505220809 22 225 4.8 9.7 0.00 0.00 0.00 100 1018.2
20260505220709 22 214 4.8 9.7 0.00 0.00 0.00 100 1018.2
20260505220610 22 200 4.8 9.7 0.00 0.00 0.00 100 1018.2
20260505220510 22 199 4.8 12.9 0.00 0.00 0.00 100 1018.1
20260505220309 22 198 4.8 12.9 0.00 0.00 0.00 100 1018.2
20260505220209 22 145 4.8 12.9 0.00 0.00 0.00 100 1018.2
20260505220109 22 223 4.8 12.9 0.00 0.00 0.00 100 1018.2
20260505220008 22 223 4.8 12.9 0.00 0.00 0.00 100 1018.2
20260505215810 22 213 4.8 12.9 0.00 0.00 0.00 100 1018.2
20260505215710 22 219 4.8 12.9 0.00 0.00 0.00 100 1018.2
20260505215607 22 218 4.8 12.9 0.00 0.00 0.00 100 1018.1
20260505215527 22 98 4.8 12.9 0.00 0.00 0.00 100 1018.2
20260505215511 22 128 4.8 14.5 0.00 0.00 0.00 100 1018.2
20260505215308 22 203 4.8 14.5 0.00 0.00 0.00 100 1018.2
20260505215207 22 202 4.8 14.5 0.00 0.00 0.00 100 1018.2
20260505215108 22 202 6.4 14.5 0.00 0.00 0.00 100 1018.1
20260505215008 22 215 6.4 14.5 0.00 0.00 0.00 100 1018.2
20260505214808 22 215 6.4 14.5 0.00 0.00 0.00 100 1018.2
20260505214708 22 215 6.4 14.5 0.00 0.00 0.00 100 1018.2
20260505214609 22 226 6.4 14.5 0.00 0.00 0.00 100 1018.2
20260505214507 22 219 6.4 14.5 0.00 0.00 0.00 100 1018.3
20260505214307 22 217 6.4 12.9 0.00 0.00 0.00 100 1018.3
20260505214207 22 213 6.4 14.5 0.00 0.00 0.00 100 1018.3
20260505214108 22 213 6.4 14.5 0.00 0.00 0.00 100 1018.3
20260505214006 22 215 6.4 14.5 0.00 0.00 0.00 100 1018.3
20260505213806 22 223 6.4 14.5 0.00 0.00 0.00 100 1018.3
20260505213707 22 226 6.4 14.5 0.00 0.00 0.00 100 1018.3
20260505213608 22 223 6.4 14.5 0.00 0.00 0.00 100 1018.3
20260505213508 22 224 6.4 14.5 0.00 0.00 0.00 100 1018.3
20260505213307 22 206 6.4 14.5 0.00 0.00 0.00 100 1018.3
20260505213208 22 223 6.4 14.5 0.00 0.00 0.00 100 1018.3
20260505213108 22 213 6.4 14.5 0.00 0.00 0.00 100 1018.2
20260505213026 22 213 6.4 14.5 0.00 0.00 0.00 100 1018.1
20260505213011 22 211 6.4 14.5 0.00 0.00 0.00 100 1018.1
20260505212806 22 221 6.4 14.5 0.00 0.00 0.00 100 1018.0
20260505212708 22 177 6.4 14.5 0.00 0.00 0.00 100 1018.1
20260505212607 22 219 6.4 14.5 0.00 0.00 0.00 100 1018.0
20260505212508 22 215 6.4 14.5 0.00 0.00 0.00 100 1018.0
20260505212306 22 215 6.4 14.5 0.00 0.00 0.00 100 1018.0
20260505212208 22 214 6.4 14.5 0.00 0.00 0.00 100 1018.0
20260505212109 22 224 6.4 14.5 0.00 0.00 0.00 100 1018.0
20260505212007 22 235 6.4 16.1 0.00 0.00 0.00 100 1018.0
20260505211910 22 169 6.4 16.1 0.00 0.00 0.00 100 1018.0
20260505211807 22 173 6.4 16.1 0.00 0.00 0.00 100 1018.0
20260505211707 22 221 6.4 16.1 0.00 0.00 0.00 100 1018.0
20260505211608 22 175 6.4 16.1 0.00 0.00 0.00 100 1018.0
20260505211507 22 221 6.4 16.1 0.00 0.00 0.00 100 1018.0
20260505211410 22 212 6.4 16.1 0.00 0.00 0.00 100 1018.0
20260505211306 22 214 6.4 16.1 0.00 0.00 0.00 100 1018.1
20260505211207 22 213 6.4 16.1 0.00 0.00 0.00 100 1018.0
20260505211107 22 235 6.4 16.1 0.00 0.00 0.00 100 1018.1
20260505211006 22 219 6.4 16.1 0.00 0.00 0.00 100 1018.1
20260505210808 22 167 6.4 16.1 0.00 0.00 0.00 100 1018.0
20260505210707 22 166 6.4 16.1 0.00 0.00 0.00 100 1018.0
20260505210606 22 113 6.4 16.1 0.00 0.00 0.00 100 1017.9
20260505210508 22 194 6.4 14.5 0.00 0.00 0.00 100 1018.0
20260505210410 22 194 6.4 14.5 0.00 0.00 0.00 100 1018.0
20260505210307 22 215 6.4 14.5 0.00 0.00 0.00 100 1018.0
20260505210208 22 222 8.0 14.5 0.00 0.00 0.00 100 1018.0
20260505210108 22 217 8.0 14.5 0.00 0.00 0.00 100 1017.9
20260505210008 22 217 8.0 14.5 0.00 0.00 0.00 100 1018.0
20260505205808 22 223 6.4 19.3 0.00 0.00 0.00 100 1018.0
20260505205707 22 229 6.4 19.3 0.00 0.00 0.00 100 1017.8
20260505205606 22 220 6.4 19.3 0.00 0.00 0.00 100 1017.9
20260505205507 22 221 6.4 19.3 0.00 0.00 0.00 100 1017.8
20260505205307 22 219 6.4 19.3 0.00 0.00 0.00 100 1017.9
20260505205207 22 214 6.4 19.3 0.00 0.00 0.00 100 1017.9
20260505205108 22 211 6.4 19.3 0.00 0.00 0.00 100 1017.9
20260505205007 22 216 6.4 19.3 0.00 0.00 0.00 100 1018.0
20260505204806 22 198 6.4 19.3 0.00 0.00 0.00 100 1017.9
20260505204707 22 134 6.4 19.3 0.00 0.00 0.00 100 1018.0
20260505204608 22 213 6.4 19.3 0.00 0.00 0.00 100 1018.1
20260505204506 22 220 6.4 19.3 0.00 0.00 0.00 100 1018.1
20260505204307 22 185 6.4 19.3 0.00 0.00 0.00 100 1018.1
20260505204207 22 168 6.4 19.3 0.00 0.00 0.00 100 1018.2
20260505204106 22 216 6.4 19.3 0.00 0.00 0.00 100 1018.2
20260505204026 22 118 6.4 19.3 0.00 0.00 0.00 100 1018.1
20260505204010 22 207 6.4 17.7 0.00 0.00 0.00 100 1018.1
20260505203807 23 211 6.4 17.7 0.00 0.00 0.00 100 1018.1
20260505203707 23 209 4.8 14.5 0.00 0.00 0.00 100 1018.1
20260505203606 22 175 4.8 14.5 0.00 0.00 0.00 100 1018.1
20260505203525 22 185 4.8 14.5 0.00 0.00 0.00 100 1018.2
20260505203509 22 49 4.8 14.5 0.00 0.00 0.00 100 1018.2
20260505203308 22 228 4.8 12.9 0.00 0.00 0.00 100 1018.3
20260505203208 22 211 4.8 12.9 0.00 0.00 0.00 100 1018.4
20260505203108 22 227 4.8 12.9 0.00 0.00 0.00 100 1018.3
20260505203008 22 244 4.8 12.9 0.00 0.00 0.00 100 1018.3
20260505202806 22 193 4.8 17.7 0.00 0.00 0.00 100 1018.4
20260505202703 22 217 6.4 17.7 0.00 0.00 0.00 100 1018.4
20260505202604 22 217 6.4 17.7 0.00 0.00 0.00 100 1018.3
20260505202523 22 220 6.4 17.7 0.00 0.00 0.00 100 1018.4
20260505202402 22 221 6.4 17.7 0.00 0.00 0.00 100 1018.4
20260505202302 22 213 6.4 17.7 0.00 0.00 0.00 100 1018.4
20260505202158 23 218 6.4 17.7 0.00 0.00 0.00 100 1018.3
20260505202058 23 214 6.4 17.7 0.00 0.00 0.00 100 1018.3
20260505201959 23 213 6.4 17.7 0.00 0.00 0.00 100 1018.3
20260505201859 23 215 6.4 17.7 0.00 0.00 0.00 100 1018.3
20260505201759 23 225 6.4 24.1 0.00 0.00 0.00 100 1018.3
20260505201659 23 161 6.4 24.1 0.00 0.00 0.00 100 1018.3
20260505201559 22 194 6.4 24.1 0.00 0.00 0.00 100 1018.3
20260505201500 22 212 6.4 24.1 0.00 0.00 0.00 100 1018.3
20260505201359 22 210 6.4 24.1 0.00 0.00 0.00 100 1018.4
20260505201256 22 210 6.4 24.1 0.00 0.00 0.00 100 1018.4
20260505201155 22 205 6.4 24.1 0.00 0.00 0.00 100 1018.3
20260505201055 22 185 6.4 24.1 0.00 0.00 0.00 100 1018.3
20260505200953 22 202 6.4 24.1 0.00 0.00 0.00 100 1018.4
20260505200853 22 108 6.4 24.1 0.00 0.00 0.00 100 1018.4
20260505200753 22 224 6.4 17.7 0.00 0.00 0.00 100 1018.4
20260505200651 22 225 6.4 17.7 0.00 0.00 0.00 100 1018.4
20260505200550 22 130 6.4 17.7 0.00 0.00 0.00 100 1018.6
20260505200451 22 178 6.4 17.7 0.00 0.00 0.00 100 1018.6
20260505200353 23 222 6.4 17.7 0.00 0.00 0.00 100 1018.4
20260505200246 23 222 6.4 17.7 0.00 0.00 0.00 100 1018.4
20260505200145 23 163 6.4 17.7 0.00 0.00 0.00 100 1018.4
20260505200043 23 155 6.4 17.7 0.00 0.00 0.00 100 1018.6
20260505200015 23 195 6.4 17.7 0.00 0.00 0.00 100 1018.4
20260505195844 23 148 6.4 14.5 0.00 0.00 0.00 100 1018.6
20260505195743 23 179 6.4 14.5 0.00 0.00 0.00 100 1018.6
20260505195643 23 196 6.4 14.5 0.00 0.00 0.00 100 1018.6
20260505195542 23 210 6.4 14.5 0.00 0.00 0.00 100 1018.7
20260505195442 23 199 6.4 14.5 0.00 0.00 0.00 100 1018.7
20260505195343 23 212 4.8 14.5 0.00 0.00 0.00 100 1018.6
20260505195243 23 203 4.8 14.5 0.00 0.00 0.00 100 1018.6
20260505195144 23 205 4.8 14.5 0.00 0.00 0.00 100 1018.6
20260505195042 23 170 4.8 14.5 0.00 0.00 0.00 100 1018.6
20260505194941 23 221 4.8 14.5 0.00 0.00 0.00 100 1018.6
20260505194841 22 218 4.8 16.1 0.00 0.00 0.00 100 1018.4
20260505194740 22 144 6.4 16.1 0.00 0.00 0.00 100 1018.8
20260505194640 22 215 6.4 16.1 0.00 0.00 0.00 100 1018.7
20260505194536 22 195 6.4 16.1 0.00 0.00 0.00 100 1018.8
20260505194434 22 215 4.8 16.1 0.00 0.00 0.00 100 1018.7
20260505194334 22 223 6.4 16.1 0.00 0.00 0.00 100 1018.7
20260505194232 22 137 6.4 16.1 0.00 0.00 0.00 100 1018.7
20260505194132 22 207 6.4 16.1 0.00 0.00 0.00 100 1018.7
20260505194028 22 189 6.4 16.1 0.00 0.00 0.00 100 1018.7
20260505193930 22 212 6.4 16.1 0.00 0.00 0.00 100 1018.8
20260505193828 23 224 4.8 14.5 0.00 0.00 0.00 100 1018.8
20260505193726 23 227 4.8 14.5 0.00 0.00 0.00 100 1018.7
20260505193626 23 220 4.8 12.9 0.00 0.00 0.00 100 1018.8
20260505193526 23 140 4.8 12.9 0.00 0.00 0.00 100 1018.8
20260505193510 23 223 4.8 14.5 0.00 0.00 0.00 100 1018.9
20260505193322 23 163 4.8 14.5 0.00 0.00 0.00 100 1018.9
20260505193223 23 217 6.4 14.5 0.00 0.00 0.00 100 1018.8
20260505193122 23 208 6.4 16.1 0.00 0.00 0.00 100 1018.8
20260505193024 23 150 6.4 16.1 0.00 0.00 0.00 100 1018.8
20260505193010 23 89 6.4 17.7 0.00 0.00 0.00 100 1018.9
20260505192819 23 88 6.4 17.7 0.00 0.00 0.00 100 1018.9
20260505192718 23 211 6.4 17.7 0.00 0.00 0.00 100 1018.9
20260505192618 23 211 6.4 17.7 0.00 0.00 0.00 100 1018.8
20260505192522 23 109 6.4 17.7 0.00 0.00 0.00 100 1018.9
20260505192506 23 206 6.4 17.7 0.00 0.00 0.00 100 1018.9
20260505192315 23 178 6.4 17.7 0.00 0.00 0.00 100 1018.9
20260505192215 23 162 6.4 17.7 0.00 0.00 0.00 100 1018.9
20260505192113 23 178 6.4 17.7 0.00 0.00 0.00 100 1018.9
20260505192013 23 215 6.4 17.7 0.00 0.00 0.00 100 1018.9
20260505191912 23 125 4.8 16.1 0.00 0.00 0.00 100 1018.9
20260505191812 23 219 4.8 16.1 0.00 0.00 0.00 100 1019.0
20260505191711 23 220 4.8 16.1 0.00 0.00 0.00 100 1018.9
20260505191609 23 220 6.4 16.1 0.00 0.00 0.00 100 1018.9
20260505191506 23 219 6.4 16.1 0.00 0.00 0.00 100 1018.9
20260505191408 23 225 6.4 16.1 0.00 0.00 0.00 100 1018.9
20260505191304 23 241 6.4 22.5 0.00 0.00 0.00 100 1019.0
20260505191205 23 169 8.0 22.5 0.00 0.00 0.00 100 1019.0
20260505191104 23 175 8.0 22.5 0.00 0.00 0.00 100 1018.9
20260505191003 23 195 8.0 22.5 0.00 0.00 0.00 100 1019.0
20260505190904 23 169 8.0 22.5 0.00 0.00 0.00 100 1019.0
20260505190804 23 220 9.7 22.5 0.00 0.00 0.00 100 1019.0
20260505190704 23 223 9.7 22.5 0.00 0.00 0.00 100 1019.2
20260505190603 22 223 9.7 22.5 0.00 0.00 0.00 100 1019.1
20260505190503 22 223 9.7 22.5 0.00 0.00 0.00 100 1019.1
20260505190404 22 230 9.7 22.5 0.00 0.00 0.00 100 1019.1
20260505190303 23 231 9.7 22.5 0.00 0.00 0.00 100 1019.1
20260505190203 23 219 9.7 19.3 0.00 0.00 0.00 100 1019.2
20260505190104 23 233 8.0 19.3 0.00 0.00 0.00 100 1019.2
20260505190003 23 227 8.0 25.7 0.00 0.00 0.00 100 1019.3
20260505185904 23 225 8.0 25.7 0.00 0.00 0.00 100 1019.3
20260505185802 23 190 9.7 25.7 0.00 0.00 0.00 100 1019.3
20260505185703 23 227 8.0 25.7 0.00 0.00 0.00 100 1019.3
20260505185602 23 223 8.0 25.7 0.00 0.00 0.00 100 1019.2
20260505185502 23 200 8.0 25.7 0.00 0.00 0.00 100 1019.3
20260505185404 23 225 8.0 25.7 0.00 0.00 0.00 100 1019.3
20260505185304 23 225 8.0 25.7 0.00 0.00 0.00 100 1019.2
20260505185202 23 221 8.0 25.7 0.00 0.00 0.00 100 1019.2
20260505185101 23 213 8.0 25.7 0.00 0.00 0.00 100 1019.2
20260505185002 23 211 8.0 22.5 0.00 0.00 0.00 100 1019.3
20260505184802 23 202 8.0 14.5 0.00 0.00 0.00 100 1019.2
20260505184702 23 202 8.0 14.5 0.00 0.00 0.00 100 1019.2
20260505184559 23 195 8.0 14.5 0.00 0.00 0.00 100 1019.3
20260505184458 23 217 8.0 14.5 0.00 0.00 0.00 100 1019.3
20260505184258 23 213 8.0 14.5 0.00 0.00 0.00 100 1019.3
20260505184157 23 215 8.0 16.1 0.00 0.00 0.00 100 1019.3
20260505184056 23 215 8.0 16.1 0.00 0.00 0.00 100 1019.2
20260505183957 23 225 8.0 16.1 0.00 0.00 0.00 100 1019.2
20260505183855 23 138 8.0 16.1 0.00 0.00 0.00 100 1019.3
20260505183753 23 225 8.0 16.1 0.00 0.00 0.00 100 1019.3
20260505183654 23 210 8.0 16.1 0.00 0.00 0.00 100 1019.3
20260505183550 23 218 8.0 17.7 0.00 0.00 0.00 100 1019.3
20260505183450 23 226 8.0 17.7 0.00 0.00 0.00 100 1019.2
20260505183346 23 223 8.0 17.7 0.00 0.00 0.00 100 1019.4
20260505183245 23 234 8.0 24.1 0.00 0.00 0.00 100 1019.3
20260505183142 23 225 8.0 24.1 0.00 0.00 0.00 100 1019.3
20260505183042 23 211 9.7 24.1 0.00 0.00 0.00 100 1019.2
20260505182942 23 223 9.7 24.1 0.00 0.00 0.00 100 1019.3
20260505182843 23 219 9.7 24.1 0.00 0.00 0.00 100 1019.3
20260505182642 23 217 8.0 24.1 0.00 0.00 0.00 100 1019.4
20260505182544 23 217 8.0 24.1 0.00 0.00 0.00 100 1019.3
20260505182508 23 201 8.0 24.1 0.00 0.00 0.00 100 1019.3
20260505182344 23 208 8.0 24.1 0.00 0.00 0.00 100 1019.3
20260505182242 23 224 8.0 16.1 0.00 0.00 0.00 100 1019.4
20260505182143 23 227 6.4 16.1 0.00 0.00 0.00 100 1019.4
20260505182043 23 221 6.4 16.1 0.00 0.00 0.00 100 1019.3
20260505181942 23 146 6.4 16.1 0.00 0.00 0.00 100 1019.3
20260505181838 23 207 6.4 16.1 0.00 0.00 0.00 100 1019.3
20260505181740 23 110 6.4 16.1 0.00 0.00 0.00 100 1019.3
20260505181639 23 209 6.4 14.5 0.00 0.00 0.00 100 1019.3
20260505181539 23 208 6.4 14.5 0.00 0.00 0.00 100 1019.3
20260505181507 23 222 6.4 20.9 0.00 0.00 0.00 100 1019.3
20260505181338 23 211 6.4 20.9 0.00 0.00 0.00 100 1019.3
20260505181235 23 207 6.4 20.9 0.00 0.00 0.00 100 1019.4
20260505181134 23 180 6.4 20.9 0.00 0.00 0.00 100 1019.3
20260505181035 23 202 6.4 20.9 0.00 0.00 0.00 100 1019.3
20260505180933 23 227 6.4 20.9 0.00 0.00 0.00 100 1019.3
20260505180833 23 228 6.4 20.9 0.00 0.00 0.00 100 1019.3
20260505180731 23 212 6.4 20.9 0.00 0.00 0.00 100 1019.3
20260505180632 23 211 6.4 20.9 0.00 0.00 0.00 100 1019.2
20260505180532 23 218 6.4 20.9 0.00 0.00 0.00 100 1019.2
20260505180504 23 219 6.4 14.5 0.00 0.00 0.00 100 1019.2
20260505180332 23 211 6.4 14.5 0.00 0.00 0.00 100 1019.3
20260505180230 23 219 6.4 14.5 0.00 0.00 0.00 100 1019.3
20260505180129 23 220 6.4 14.5 0.00 0.00 0.00 100 1019.3
20260505180028 23 221 6.4 14.5 0.00 0.00 0.00 100 1019.3
20260505175930 23 221 6.4 14.5 0.00 0.00 0.00 100 1019.3
20260505175829 23 219 6.4 14.5 0.00 0.00 0.00 100 1019.3
20260505175729 23 86 6.4 14.5 0.00 0.00 0.00 100 1019.4
20260505175628 23 201 6.4 14.5 0.00 0.00 0.00 100 1019.4
20260505175529 23 74 6.4 14.5 0.00 0.00 0.00 100 1019.4
20260505175504 23 225 6.4 16.1 0.00 0.00 0.00 100 1019.5
20260505175329 23 175 6.4 19.3 0.00 0.00 0.00 100 1019.5
20260505175226 23 153 8.0 19.3 0.00 0.00 0.00 100 1019.6
20260505175128 23 209 8.0 19.3 0.00 0.00 0.00 100 1019.5
20260505175025 23 210 8.0 19.3 0.00 0.00 0.00 100 1019.5
20260505174926 23 207 8.0 19.3 0.00 0.00 0.00 100 1019.5
20260505174823 23 179 8.0 19.3 0.00 0.00 0.00 100 1019.5
20260505174721 23 211 8.0 19.3 0.00 0.00 0.00 100 1019.4
20260505174618 23 208 8.0 19.3 0.00 0.00 0.00 100 1019.5
20260505174518 23 192 8.0 19.3 0.00 0.00 0.00 100 1019.6
20260505174419 23 210 8.0 19.3 0.00 0.00 0.00 100 1019.4
20260505174319 23 220 8.0 19.3 0.00 0.00 0.00 100 1019.5
20260505174216 23 221 8.0 19.3 0.00 0.00 0.00 100 1019.5
20260505174118 23 207 8.0 19.3 0.00 0.00 0.00 100 1019.4
20260505174016 23 192 8.0 19.3 0.00 0.00 0.00 100 1019.4
20260505173914 23 223 8.0 19.3 0.00 0.00 0.00 100 1019.5
20260505173815 23 231 8.0 19.3 0.00 0.00 0.00 100 1019.5
20260505173712 23 219 8.0 17.7 0.00 0.00 0.00 100 1019.5
20260505173611 23 217 8.0 17.7 0.00 0.00 0.00 100 1019.5
20260505173511 23 223 8.0 17.7 0.00 0.00 0.00 100 1019.5
20260505173410 23 228 8.0 17.7 0.00 0.00 0.00 100 1019.5
20260505173311 23 219 8.0 17.7 0.00 0.00 0.00 100 1019.4
20260505173209 23 216 8.0 19.3 0.00 0.00 0.00 100 1019.5
20260505173107 23 221 8.0 19.3 0.00 0.00 0.00 100 1019.5
20260505173008 22 221 8.0 19.3 0.00 0.00 0.00 100 1019.4
20260505172907 22 221 9.7 19.3 0.00 0.00 0.00 100 1019.4
20260505172806 22 223 9.7 19.3 0.00 0.00 0.00 100 1019.5
20260505172706 22 207 9.7 19.3 0.00 0.00 0.00 100 1019.5
20260505172607 23 214 8.0 19.3 0.00 0.00 0.00 100 1019.5
20260505172506 23 225 8.0 19.3 0.00 0.00 0.00 100 1019.5
20260505172406 23 226 8.0 19.3 0.00 0.00 0.00 100 1019.5
20260505172306 23 229 6.4 19.3 0.00 0.00 0.00 100 1019.4
20260505172205 23 213 6.4 17.7 0.00 0.00 0.00 100 1019.6
20260505172106 23 218 6.4 17.7 0.00 0.00 0.00 100 1019.5
20260505172013 23 219 6.4 17.7 0.00 0.00 0.00 100 1019.5
20260505171957 23 222 4.8 17.7 0.00 0.00 0.00 100 1019.5
20260505171806 23 219 4.8 17.7 0.00 0.00 0.00 100 1019.5
20260505171706 23 219 4.8 17.7 0.00 0.00 0.00 100 1019.5
20260505171604 23 219 6.4 17.7 0.00 0.00 0.00 100 1019.4
20260505171502 23 202 6.4 17.7 0.00 0.00 0.00 100 1019.6
20260505171402 23 182 6.4 17.7 0.00 0.00 0.00 100 1019.5
20260505171302 23 112 6.4 17.7 0.00 0.00 0.00 100 1019.5
20260505171204 23 219 8.0 17.7 0.00 0.00 0.00 100 1019.5
20260505171103 23 217 8.0 17.7 0.00 0.00 0.00 100 1019.6
20260505171012 23 219 8.0 17.7 0.00 0.00 0.00 100 1019.5
20260505170957 23 218 8.0 17.7 0.00 0.00 0.00 100 1019.5
20260505170803 23 187 8.0 17.7 0.00 0.00 0.00 100 1019.5
20260505170703 23 233 8.0 17.7 0.00 0.00 0.00 100 1019.5
20260505170603 23 210 8.0 17.7 0.00 0.00 0.00 100 1019.6
20260505170502 23 221 6.4 17.7 0.00 0.00 0.00 100 1019.5
20260505170433 23 159 6.4 17.7 0.00 0.00 0.00 100 1019.6
20260505170300 23 223 6.4 17.7 0.00 0.00 0.00 100 1019.5
20260505170200 23 225 6.4 19.3 0.00 0.00 0.00 100 1019.5
20260505170108 23 209 6.4 19.3 0.00 0.00 0.00 100 1019.5
20260505170000 23 207 6.4 19.3 0.00 0.00 0.00 100 1019.6
20260505165800 23 200 6.4 19.3 0.00 0.00 0.00 100 1019.6
20260505165701 23 216 4.8 19.3 0.00 0.00 0.00 100 1019.6
20260505165601 23 161 4.8 19.3 0.00 0.00 0.00 100 1019.5
20260505165500 23 219 4.8 19.3 0.00 0.00 0.00 100 1019.6
20260505165401 23 194 4.8 19.3 0.00 0.00 0.00 100 1019.5
20260505165300 23 192 4.8 19.3 0.00 0.00 0.00 100 1019.5
20260505165201 23 116 6.4 14.5 0.00 0.00 0.00 100 1019.7
20260505165059 23 215 6.4 14.5 0.00 0.00 0.00 100 1019.5
20260505164959 23 217 6.4 14.5 0.00 0.00 0.00 100 1019.7
20260505164759 22 178 6.4 16.1 0.00 0.00 0.00 100 1019.7
20260505164659 22 175 8.0 16.1 0.00 0.00 0.00 100 1019.7
20260505164559 22 191 8.0 16.1 0.00 0.00 0.00 100 1019.7
20260505164458 22 191 8.0 16.1 0.00 0.00 0.00 100 1019.7
20260505164359 22 222 8.0 16.1 0.00 0.00 0.00 100 1019.7
20260505164258 22 240 8.0 16.1 0.00 0.00 0.00 100 1019.7
20260505164200 22 220 9.7 20.9 0.00 0.00 0.00 100 1019.6
20260505164058 22 179 9.7 20.9 0.00 0.00 0.00 100 1019.6
20260505163959 22 226 9.7 20.9 0.00 0.00 0.00 100 1019.7
20260505163855 22 212 9.7 20.9 0.00 0.00 0.00 100 1019.7
20260505163758 22 210 9.7 20.9 0.00 0.00 0.00 100 1019.7
20260505163657 22 220 9.7 20.9 0.00 0.00 0.00 100 1019.7
20260505163556 22 227 9.7 20.9 0.00 0.00 0.00 100 1019.7
20260505163457 22 0 9.7 20.9 0.00 0.00 0.00 100 1019.8
20260505163357 22 226 9.7 20.9 0.00 0.00 0.00 100 1019.7
20260505163257 22 221 9.7 20.9 0.00 0.00 0.00 100 1019.7
20260505163157 22 217 9.7 19.3 0.00 0.00 0.00 100 1019.7
20260505163056 22 232 8.0 19.3 0.00 0.00 0.00 100 1019.7
20260505162958 22 221 8.0 17.7 0.00 0.00 0.00 100 1019.7
20260505162857 22 219 9.7 17.7 0.00 0.00 0.00 100 1019.6
20260505162757 22 222 8.0 17.7 0.00 0.00 0.00 100 1019.6
20260505162654 22 146 9.7 17.7 0.00 0.00 0.00 100 1019.7
20260505162555 22 227 9.7 17.7 0.00 0.00 0.00 100 1019.8
20260505162510 22 225 9.7 17.7 0.00 0.00 0.00 100 1019.7
20260505162453 22 224 9.7 17.7 0.00 0.00 0.00 100 1019.7
20260505162251 22 225 9.7 17.7 0.00 0.00 0.00 100 1019.7
20260505162152 22 221 9.7 17.7 0.00 0.00 0.00 100 1019.8
20260505162052 22 227 8.0 17.7 0.00 0.00 0.00 100 1019.8
20260505162008 22 224 9.7 17.7 0.00 0.00 0.00 100 1019.8
20260505161953 22 215 8.0 17.7 0.00 0.00 0.00 100 1019.9
20260505161752 22 203 8.0 17.7 0.00 0.00 0.00 100 1019.9
20260505161651 22 232 8.0 17.7 0.00 0.00 0.00 100 1020.0
20260505161553 22 223 8.0 17.7 0.00 0.00 0.00 100 1020.0
20260505161453 22 221 6.4 17.7 0.00 0.00 0.00 100 1019.9
20260505161354 22 225 6.4 14.5 0.00 0.00 0.00 100 1020.0
20260505161252 22 130 6.4 14.5 0.00 0.00 0.00 100 1020.0
20260505161153 22 225 6.4 14.5 0.00 0.00 0.00 100 1020.0
20260505161050 22 215 6.4 12.9 0.00 0.00 0.00 100 1020.0
20260505160950 22 212 6.4 17.7 0.00 0.00 0.00 100 1020.0
20260505160850 22 229 8.0 17.7 0.00 0.00 0.00 100 1020.0
20260505160751 22 223 8.0 17.7 0.00 0.00 0.00 100 1020.0
20260505160650 22 215 8.0 17.7 0.00 0.00 0.00 100 1020.1
20260505160550 22 206 8.0 17.7 0.00 0.00 0.00 100 1020.1
20260505160450 22 183 9.7 17.7 0.00 0.00 0.00 100 1020.0
20260505160249 22 216 11.3 19.3 0.00 0.00 0.00 100 1020.1
20260505153336 22 226 4.8 14.5 0.00 0.00 0.00 100 1019.9
20260505153237 22 225 4.8 14.5 0.00 0.00 0.00 100 1019.9
20260505153136 22 223 4.8 14.5 0.00 0.00 0.00 100 1019.9
20260505153037 22 225 4.8 14.5 0.00 0.00 0.00 100 1019.9
20260505152935 22 214 6.4 16.1 0.00 0.00 0.00 100 1019.9
20260505152833 22 215 6.4 17.7 0.00 0.00 0.00 100 1019.8
20260505152732 22 214 6.4 17.7 0.00 0.00 0.00 100 1019.9
20260505152631 22 101 6.4 17.7 0.00 0.00 0.00 100 1019.9
20260505152530 22 196 6.4 17.7 0.00 0.00 0.00 100 1019.9
20260505152444 22 222 8.0 17.7 0.00 0.00 0.00 100 1019.9
20260505152438 22 222 8.0 17.7 0.00 0.00 0.00 100 1019.9
20260505152433 22 212 8.0 17.7 0.00 0.00 0.00 100 1019.9
20260505152427 22 222 8.0 17.7 0.00 0.00 0.00 100 1019.9
20260505152029 22 223 8.0 17.7 0.00 0.00 0.00 100 1019.9
20260505151954 22 226 8.0 17.7 0.00 0.00 0.00 100 1019.9
20260505151831 22 222 9.7 19.3 0.00 0.00 0.00 100 1019.9
20260505151728 22 224 9.7 19.3 0.00 0.00 0.00 100 1020.0
20260505151626 22 224 9.7 19.3 0.00 0.00 0.00 100 1019.9
20260505151526 22 224 9.7 22.5 0.00 0.00 0.00 100 1019.9
20260505151425 22 224 9.7 22.5 0.00 0.00 0.00 100 1019.9
20260505151324 22 225 9.7 22.5 0.00 0.00 0.00 100 1020.0
20260505151224 22 231 9.7 22.5 0.00 0.00 0.00 100 1019.9
20260505151125 22 213 8.0 22.5 0.00 0.00 0.00 100 1020.0
20260505151024 22 232 8.0 22.5 0.00 0.00 0.00 100 1020.1
20260505150953 22 232 8.0 22.5 0.00 0.00 0.00 100 1019.9
20260505150824 22 227 6.4 22.5 0.00 0.00 0.00 100 1020.0
20260505150724 22 221 6.4 22.5 0.00 0.00 0.00 100 1020.0
20260505150624 22 228 4.8 22.5 0.00 0.00 0.00 100 1020.0
20260505150525 22 229 4.8 20.9 0.00 0.00 0.00 100 1020.0
20260505150423 22 228 4.8 11.3 0.00 0.00 0.00 100 1020.0
20260505150325 22 217 4.8 11.3 0.00 0.00 0.00 100 1019.9
20260505150222 22 217 4.8 11.3 0.00 0.00 0.00 100 1019.9
20260505150122 22 223 4.8 11.3 0.00 0.00 0.00 100 1019.9
20260505140654 22 232 4.8 11.3 0.00 0.00 0.00 100 1019.7
20260505140554 21 232 4.8 11.3 0.00 0.00 0.00 100 1019.7
20260505140454 21 232 4.8 12.9 0.00 0.00 0.00 100 1019.7
20260505140354 21 232 4.8 12.9 0.00 0.00 0.00 100 1019.7
20260505140252 21 224 4.8 12.9 0.00 0.00 0.00 100 1019.8
20260505140152 21 224 6.4 12.9 0.00 0.00 0.00 100 1019.7
20260505130242 20 226 4.8 11.3 0.00 0.00 0.00 100 1019.6
20260505130141 20 225 3.2 11.3 0.00 0.00 0.00 100 1019.5
20260505125041 20 224 3.2 8.0 0.00 0.00 0.00 100 1019.6
20260505124937 20 224 4.8 8.0 0.00 0.00 0.00 100 1019.6
20260505124735 20 224 4.8 8.0 0.00 0.00 0.00 100 1019.6
20260505124634 20 224 4.8 8.0 0.00 0.00 0.00 100 1019.6
20260505124532 20 224 3.2 8.0 0.00 0.00 0.00 100 1019.7
20260505124431 20 224 3.2 8.0 0.00 0.00 0.00 100 1019.6
20260505124226 19 224 3.2 6.4 0.00 0.00 0.00 100 1019.6
20260505124125 19 224 3.2 6.4 0.00 0.00 0.00 100 1019.6
20260505124025 19 224 3.2 6.4 0.00 0.00 0.00 100 1019.6
20260505123925 19 224 3.2 6.4 0.00 0.00 0.00 100 1019.6
20260505123723 19 224 3.2 6.4 0.00 0.00 0.00 100 1019.6
20260505123624 19 224 3.2 6.4 0.00 0.00 0.00 100 1019.6
20260505123524 19 224 3.2 6.4 0.00 0.00 0.00 100 1019.5
20260505123444 18 224 3.2 6.4 0.00 0.00 0.00 100 1019.6
20260505123428 18 224 3.2 6.4 0.00 0.00 0.00 100 1019.5
20260505123224 18 224 3.2 6.4 0.00 0.00 0.00 100 1019.4
20260505123123 18 224 3.2 6.4 0.00 0.00 0.00 100 1019.5
20260505123021 18 224 3.2 6.4 0.00 0.00 0.00 100 1019.5
20260505122918 18 224 1.6 6.4 0.00 0.00 0.00 100 1019.5
20260505122816 18 224 1.6 6.4 0.00 0.00 0.00 100 1019.5
20260505122716 18 224 1.6 6.4 0.00 0.00 0.00 100 1019.6
20260505122615 18 224 1.6 4.8 0.00 0.00 0.00 100 1019.6
20260505122517 18 224 1.6 4.8 0.00 0.00 0.00 100 1019.6
20260505122436 17 224 1.6 4.8 0.00 0.00 0.00 100 1019.5
20260505122317 17 224 0.0 4.8 0.00 0.00 0.00 100 1019.6
20260505122216 17 224 0.0 4.8 0.00 0.00 0.00 100 1019.6
20260505122116 17 224 0.0 0.0 0.00 0.00 0.00 100 1019.6
20260505122016 17 224 0.0 0.0 0.00 0.00 0.00 100 1019.5
20260505121916 17 224 0.0 0.0 0.00 0.00 0.00 100 1019.5
20260505121817 17 224 0.0 0.0 0.00 0.00 0.00 100 1019.5
20260505121717 17 224 0.0 0.0 0.00 0.00 0.00 100 1019.5
20260505121616 17 224 0.0 0.0 0.00 0.00 0.00 100 1019.6
20260505121513 17 224 0.0 0.0 0.00 0.00 0.00 100 1019.5
20260505121413 17 224 0.0 0.0 0.00 0.00 0.00 100 1019.5
20260505121313 17 224 0.0 0.0 0.00 0.00 0.00 100 1019.5
20260505121210 17 224 0.0 0.0 0.00 0.00 0.00 100 1019.6
20260505121108 16 224 0.0 0.0 0.00 0.00 0.00 100 1019.7
20260505121006 16 224 0.0 0.0 0.00 0.00 0.00 100 1019.6
20260505120906 16 224 0.0 0.0 0.00 0.00 0.00 100 1019.6
20260505120808 16 224 0.0 0.0 0.00 0.00 0.00 100 1019.6
20260505120705 16 224 0.0 0.0 0.00 0.00 0.00 100 1019.6
20260505120602 16 224 0.0 0.0 0.00 0.00 0.00 100 1019.6
20260505120503 16 224 0.0 0.0 0.00 0.00 0.00 100 1019.5
20260505120401 16 224 0.0 0.0 0.00 0.00 0.00 100 1019.5
20260505120300 16 224 0.0 0.0 0.00 0.00 0.00 100 1019.5
20260505120159 15 224 0.0 0.0 0.00 0.00 0.00 100 1019.5
20260505120100 15 224 0.0 0.0 0.00 0.00 0.00 100 1019.4
20260505120001 15 224 0.0 0.0 0.00 0.00 0.00 100 1019.4
20260505115927 15 224 0.0 0.0 0.00 0.00 0.00 100 1019.4
20260505115802 15 224 0.0 0.0 0.00 0.00 0.00 100 1019.4
20260505115701 15 224 0.0 0.0 0.00 0.00 0.00 100 1019.5
20260505115559 15 224 0.0 0.0 0.00 0.00 0.00 100 1019.4
20260505115458 15 224 0.0 0.0 0.00 0.00 0.00 100 1019.5
20260505115359 15 224 0.0 0.0 0.00 0.00 0.00 100 1019.5
20260505115255 14 224 0.0 0.0 0.00 0.00 0.00 100 1019.4
20260505115157 14 224 0.0 0.0 0.00 0.00 0.00 100 1019.5
20260505115054 14 224 0.0 0.0 0.00 0.00 0.00 100 1019.4
20260505114954 14 224 0.0 0.0 0.00 0.00 0.00 100 1019.4
20260505114927 14 224 0.0 0.0 0.00 0.00 0.00 100 1019.4
20260505114752 14 224 0.0 0.0 0.00 0.00 0.00 100 1019.4
20260505114651 13 224 0.0 0.0 0.00 0.00 0.00 100 1019.4
20260505114553 13 224 0.0 0.0 0.00 0.00 0.00 100 1019.4
20260505114453 13 224 0.0 0.0 0.00 0.00 0.00 100 1019.4
20260505114352 13 224 0.0 0.0 0.00 0.00 0.00 100 1019.4
20260505114248 13 225 0.0 0.0 0.00 0.00 0.00 100 1019.3
20260505114149 13 224 0.0 0.0 0.00 0.00 0.00 100 1019.3
20260505114047 13 224 0.0 0.0 0.00 0.00 0.00 100 1019.3
20260505113946 13 224 0.0 0.0 0.00 0.00 0.00 100 1019.3
20260505113845 13 224 0.0 0.0 0.00 0.00 0.00 100 1019.3
20260505113744 13 224 0.0 0.0 0.00 0.00 0.00 100 1019.3
20260505113645 13 224 0.0 0.0 0.00 0.00 0.00 100 1019.2
20260505113544 12 224 0.0 0.0 0.00 0.00 0.00 100 1019.2
20260505113442 12 224 0.0 0.0 0.00 0.00 0.00 100 1019.3
20260505113341 12 224 0.0 0.0 0.00 0.00 0.00 100 1019.2
20260505113241 12 224 0.0 0.0 0.00 0.00 0.00 100 1019.1
20260505113139 12 224 0.0 0.0 0.00 0.00 0.00 100 1019.3
20260505113041 12 224 0.0 0.0 0.00 0.00 0.00 100 1019.3
20260505112937 12 224 0.0 0.0 0.00 0.00 0.00 100 1019.1
20260505112838 12 224 0.0 0.0 0.00 0.00 0.00 100 1019.2
20260505112736 12 224 0.0 0.0 0.00 0.00 0.00 100 1019.2
20260505112635 12 224 0.0 0.0 0.00 0.00 0.00 100 1019.1
20260505112536 12 224 0.0 0.0 0.00 0.00 0.00 100 1019.1
20260505112437 12 224 0.0 0.0 0.00 0.00 0.00 100 1019.2
20260505112423 12 224 0.0 0.0 0.00 0.00 0.00 100 1019.1
20260505112232 12 224 0.0 0.0 0.00 0.00 0.00 100 1019.0
20260505112132 12 224 0.0 0.0 0.00 0.00 0.00 100 1019.1
20260505112032 12 224 0.0 0.0 0.00 0.00 0.00 100 1019.1
20260505111935 11 224 0.0 0.0 0.00 0.00 0.00 100 1019.0
20260505111920 11 224 0.0 0.0 0.00 0.00 0.00 100 1019.1
20260505111729 11 224 0.0 0.0 0.00 0.00 0.00 100 1018.9
20260505111628 11 224 0.0 0.0 0.00 0.00 0.00 100 1019.0
20260505111526 11 224 0.0 0.0 0.00 0.00 0.00 100 1019.1
20260505111423 11 224 0.0 0.0 0.00 0.00 0.00 100 1019.1
20260505111222 11 224 0.0 0.0 0.00 0.00 0.00 100 1019.0
20260505111121 11 224 0.0 0.0 0.00 0.00 0.00 100 1019.0
20260505111023 11 224 0.0 0.0 0.00 0.00 0.00 100 1019.0
20260505110920 11 224 0.0 0.0 0.00 0.00 0.00 100 1019.0
20260505110717 11 224 0.0 0.0 0.00 0.00 0.00 100 1018.9
20260505110617 11 224 0.0 0.0 0.00 0.00 0.00 100 1018.9
20260505110517 11 224 0.0 0.0 0.00 0.00 0.00 100 1019.0
20260505110416 11 224 0.0 0.0 0.00 0.00 0.00 100 1019.0
20260505110215 11 224 0.0 0.0 0.00 0.00 0.00 100 1019.0
20260505110113 11 224 0.0 0.0 0.00 0.00 0.00 100 1018.9
20260505102143 11 224 0.0 0.0 0.00 0.00 0.00 100 1018.4
20260505102041 11 224 0.0 0.0 0.00 0.00 0.00 100 1018.4
20260505101944 11 224 0.0 0.0 0.00 0.00 0.00 100 1018.4
20260505101839 11 224 0.0 0.0 0.00 0.00 0.00 100 1018.4
20260505101740 11 224 0.0 0.0 0.00 0.00 0.00 100 1018.4
20260505101638 11 224 0.0 0.0 0.00 0.00 0.00 100 1018.4
20260505101537 11 224 0.0 0.0 0.00 0.00 0.00 100 1018.3
20260505101439 11 224 0.0 0.0 0.00 0.00 0.00 100 1018.4
20260505101336 11 224 0.0 0.0 0.00 0.00 0.00 100 1018.3
20260505101236 11 224 0.0 0.0 0.00 0.00 0.00 100 1018.4
20260505101134 11 224 0.0 0.0 0.00 0.00 0.00 100 1018.4
20260505101034 11 224 0.0 0.0 0.00 0.00 0.00 100 1018.3
20260505100934 11 224 0.0 0.0 0.00 0.00 0.00 100 1018.3
20260505100919 11 224 0.0 0.0 0.00 0.00 0.00 100 1018.4
20260505100729 11 224 0.0 0.0 0.00 0.00 0.00 100 1018.4
20260505100629 11 224 0.0 0.0 0.00 0.00 0.00 100 1018.4
20260505100529 11 224 0.0 0.0 0.00 0.00 0.00 100 1018.4
20260505100429 11 224 0.0 0.0 0.00 0.00 0.00 100 1018.4
20260505100329 11 224 0.0 0.0 0.00 0.00 0.00 100 1018.3
20260505100229 11 224 0.0 0.0 0.00 0.00 0.00 100 1018.3
20260505100127 11 224 0.0 0.0 0.00 0.00 0.00 100 1018.3
20260505100026 11 224 0.0 0.0 0.00 0.00 0.00 100 1018.3
20260505095926 11 224 0.0 0.0 0.00 0.00 0.00 100 1018.2
20260505095724 11 224 0.0 0.0 0.00 0.00 0.00 100 1018.2
20260505095622 11 224 0.0 0.0 0.00 0.00 0.00 100 1018.2
20260505095521 11 224 0.0 0.0 0.00 0.00 0.00 100 1018.2
20260505095422 11 224 0.0 0.0 0.00 0.00 0.00 100 1018.2
20260505095220 11 224 0.0 0.0 0.00 0.00 0.00 100 1018.2
20260505095117 11 224 0.0 0.0 0.00 0.00 0.00 100 1018.2
20260505095018 11 224 0.0 0.0 0.00 0.00 0.00 100 1018.1
20260505094917 11 224 0.0 0.0 0.00 0.00 0.00 100 1018.2
20260505094716 11 224 0.0 0.0 0.00 0.00 0.00 100 1018.2
20260505094615 11 224 0.0 0.0 0.00 0.00 0.00 100 1018.1
20260505094514 11 224 0.0 0.0 0.00 0.00 0.00 100 1018.1
20260505094414 11 224 0.0 0.0 0.00 0.00 0.00 100 1018.1
20260505094211 11 224 0.0 0.0 0.00 0.00 0.00 100 1018.0
20260505094109 11 224 0.0 0.0 0.00 0.00 0.00 100 1018.1
20260505094009 11 224 0.0 0.0 0.00 0.00 0.00 100 1018.1
20260505093910 11 224 0.0 0.0 0.00 0.00 0.00 100 1018.0
20260505093706 11 224 0.0 0.0 0.00 0.00 0.00 100 1018.1
20260505093606 11 224 0.0 0.0 0.00 0.00 0.00 100 1018.1
20260505093505 11 224 0.0 0.0 0.00 0.00 0.00 100 1018.1
20260505093405 11 224 0.0 0.0 0.00 0.00 0.00 100 1018.0
20260505093305 11 224 0.0 0.0 0.00 0.00 0.00 100 1018.0
20260505093203 11 224 0.0 0.0 0.00 0.00 0.00 100 1018.0
20260505093102 11 224 0.0 0.0 0.00 0.00 0.00 100 1018.0
20260505093001 11 224 0.0 0.0 0.00 0.00 0.00 100 1018.0
20260505092921 11 224 0.0 0.0 0.00 0.00 0.00 100 1018.0
20260505092801 11 224 0.0 0.0 0.00 0.00 0.00 100 1018.0
20260505092701 11 224 0.0 0.0 0.00 0.00 0.00 100 1018.0
20260505092602 11 224 0.0 0.0 0.00 0.00 0.00 100 1017.9
20260505092501 11 224 0.0 0.0 0.00 0.00 0.00 100 1017.9
20260505092401 11 224 0.0 0.0 0.00 0.00 0.00 100 1018.0
20260505092301 11 224 0.0 0.0 0.00 0.00 0.00 100 1018.0
20260505092159 11 224 0.0 0.0 0.00 0.00 0.00 100 1017.9
20260505092059 11 224 0.0 0.0 0.00 0.00 0.00 100 1017.9
20260505091959 11 224 0.0 0.0 0.00 0.00 0.00 100 1017.9
20260505091901 11 224 0.0 0.0 0.00 0.00 0.00 100 1018.0
20260505091802 11 224 0.0 0.0 0.00 0.00 0.00 100 1018.0
20260505091659 11 224 0.0 0.0 0.00 0.00 0.00 100 1018.0
20260505091557 12 224 0.0 0.0 0.00 0.00 0.00 100 1017.9
20260505091455 11 224 0.0 0.0 0.00 0.00 0.00 100 1017.9
20260505091356 12 224 0.0 0.0 0.00 0.00 0.00 100 1017.9
20260505091256 12 224 0.0 0.0 0.00 0.00 0.00 100 1017.9
20260505091155 12 224 0.0 0.0 0.00 0.00 0.00 100 1017.8
20260505091057 12 224 0.0 0.0 0.00 0.00 0.00 100 1017.8
20260505090956 12 224 0.0 0.0 0.00 0.00 0.00 100 1017.8
20260505090920 12 224 0.0 0.0 0.00 0.00 0.00 100 1017.8
20260505090755 12 224 0.0 0.0 0.00 0.00 0.00 100 1017.8
20260505090656 12 224 0.0 0.0 0.00 0.00 0.00 100 1017.8
20260505090553 12 224 0.0 0.0 0.00 0.00 0.00 100 1017.8
20260505090453 12 224 0.0 0.0 0.00 0.00 0.00 100 1017.8
20260505090352 12 224 0.0 0.0 0.00 0.00 0.00 100 1017.8
20260505090251 12 224 0.0 0.0 0.00 0.00 0.00 100 1017.7
20260505090152 12 224 0.0 0.0 0.00 0.00 0.00 100 1017.8
20260505090049 12 224 0.0 0.0 0.00 0.00 0.00 100 1017.8
20260505085949 12 224 0.0 0.0 0.00 0.00 0.00 100 1017.8
20260505085846 12 224 0.0 0.0 0.00 0.00 0.00 100 1017.7
20260505085748 12 224 0.0 0.0 0.00 0.00 0.00 100 1017.8
20260505085647 12 224 0.0 0.0 0.00 0.00 0.00 100 1017.8
20260505085547 12 224 0.0 0.0 0.00 0.00 0.00 100 1017.8
20260505085445 12 224 0.0 0.0 0.00 0.00 0.00 100 1017.7
20260505085417 12 224 0.0 0.0 0.00 0.00 0.00 100 1017.8
20260505085243 12 224 0.0 0.0 0.00 0.00 0.00 100 1017.7
20260505085144 12 224 0.0 0.0 0.00 0.00 0.00 100 1017.8
20260505085044 12 224 0.0 0.0 0.00 0.00 0.00 100 1017.7
20260505084941 12 224 0.0 0.0 0.00 0.00 0.00 100 1017.8
20260505084841 12 224 0.0 0.0 0.00 0.00 0.00 100 1017.9
20260505084739 12 224 0.0 0.0 0.00 0.00 0.00 100 1017.8
20260505084640 12 224 0.0 0.0 0.00 0.00 0.00 100 1017.9
20260505084538 12 224 0.0 0.0 0.00 0.00 0.00 100 1017.9
20260505084439 12 224 0.0 0.0 0.00 0.00 0.00 100 1017.9
20260505084335 12 224 0.0 0.0 0.00 0.00 0.00 100 1017.8
20260505084237 12 224 0.0 0.0 0.00 0.00 0.00 100 1017.9
20260505084135 12 224 0.0 0.0 0.00 0.00 0.00 100 1017.8
20260505084034 12 224 0.0 0.0 0.00 0.00 0.00 100 1017.7
20260505083933 12 224 0.0 0.0 0.00 0.00 0.00 100 1017.7
20260505083832 12 224 0.0 0.0 0.00 0.00 0.00 100 1017.8
20260505083731 12 224 0.0 0.0 0.00 0.00 0.00 100 1017.8
20260505083632 12 224 0.0 0.0 0.00 0.00 0.00 100 1017.8
20260505083529 12 224 0.0 0.0 0.00 0.00 0.00 100 1017.8
20260505083430 12 224 0.0 0.0 0.00 0.00 0.00 100 1017.7
20260505083328 12 224 0.0 0.0 0.00 0.00 0.00 100 1017.7
20260505083227 12 224 0.0 0.0 0.00 0.00 0.00 100 1017.7
20260505083129 12 224 0.0 0.0 0.00 0.00 0.00 100 1017.7
20260505083025 12 224 0.0 0.0 0.00 0.00 0.00 100 1017.7
20260505082925 12 224 0.0 0.0 0.00 0.00 0.00 100 1017.7
20260505082725 12 224 0.0 0.0 0.00 0.00 0.00 100 1017.7
20260505082623 12 224 0.0 0.0 0.00 0.00 0.00 100 1017.7
20260505082522 12 224 0.0 0.0 0.00 0.00 0.00 100 1017.7
20260505082421 12 224 0.0 0.0 0.00 0.00 0.00 100 1017.7
20260505082219 12 224 0.0 0.0 0.00 0.00 0.00 100 1017.7
20260505082119 12 224 0.0 0.0 0.00 0.00 0.00 100 1017.8
20260505082018 12 224 0.0 0.0 0.00 0.00 0.00 100 1017.7
20260505081916 12 224 0.0 0.0 0.00 0.00 0.00 100 1017.7
20260505081717 12 224 0.0 0.0 0.00 0.00 0.00 100 1017.7
20260505081615 12 224 0.0 0.0 0.00 0.00 0.00 100 1017.7
20260505081514 12 224 0.0 0.0 0.00 0.00 0.00 100 1017.8
20260505081413 12 224 0.0 0.0 0.00 0.00 0.00 100 1017.7
20260505081211 12 224 0.0 0.0 0.00 0.00 0.00 100 1017.8
20260505081111 12 224 0.0 0.0 0.00 0.00 0.00 100 1017.7
20260505081009 12 224 0.0 0.0 0.00 0.00 0.00 100 1017.7
20260505080909 12 224 0.0 0.0 0.00 0.00 0.00 100 1017.8
20260505080708 12 224 0.0 0.0 0.00 0.00 0.00 100 1017.7
20260505080607 12 224 0.0 0.0 0.00 0.00 0.00 100 1017.7
20260505080506 12 224 0.0 0.0 0.00 0.00 0.00 100 1017.8
20260505080406 12 224 0.0 0.0 0.00 0.00 0.00 100 1017.8
20260505080203 12 224 0.0 0.0 0.00 0.00 0.00 100 1017.7
20260505080104 12 224 0.0 0.0 0.00 0.00 0.00 100 1017.5
20260505080004 12 224 0.0 0.0 0.00 0.00 0.00 100 1017.5
20260505075904 12 224 0.0 0.0 0.00 0.00 0.00 100 1017.6
20260505075704 12 224 0.0 0.0 0.00 0.00 0.00 100 1017.5
20260505075602 12 224 0.0 0.0 0.00 0.00 0.00 100 1017.5
20260505075501 12 224 0.0 0.0 0.00 0.00 0.00 100 1017.5
20260505075400 12 224 0.0 0.0 0.00 0.00 0.00 100 1017.6
20260505075259 12 224 0.0 0.0 0.00 0.00 0.00 100 1017.7
20260505075200 12 224 0.0 0.0 0.00 0.00 0.00 100 1017.6
20260505075057 12 224 0.0 0.0 0.00 0.00 0.00 100 1017.7
20260505074958 12 224 0.0 0.0 0.00 0.00 0.00 100 1017.6
20260505074917 12 224 0.0 0.0 0.00 0.00 0.00 100 1017.6
20260505074756 12 224 0.0 0.0 0.00 0.00 0.00 100 1017.6
20260505074655 12 224 0.0 0.0 0.00 0.00 0.00 100 1017.5
20260505074552 13 224 0.0 0.0 0.00 0.00 0.00 100 1017.6
20260505074454 13 224 0.0 0.0 0.00 0.00 0.00 100 1017.6
20260505074415 13 224 0.0 0.0 0.00 0.00 0.00 100 1017.6
20260505074252 13 224 0.0 0.0 0.00 0.00 0.00 100 1017.5
20260505074152 13 224 0.0 0.0 0.00 0.00 0.00 100 1017.5
20260505074050 13 224 0.0 0.0 0.00 0.00 0.00 100 1017.5
20260505073949 13 224 0.0 0.0 0.00 0.00 0.00 100 1017.6
20260505073850 13 224 0.0 0.0 0.00 0.00 0.00 100 1017.5
20260505073747 13 224 0.0 0.0 0.00 0.00 0.00 100 1017.4
20260505073648 13 224 0.0 0.0 0.00 0.00 0.00 100 1017.4
20260505073545 13 224 0.0 0.0 0.00 0.00 0.00 100 1017.5
20260505073445 13 224 0.0 0.0 0.00 0.00 0.00 100 1017.4
20260505073346 13 224 0.0 0.0 0.00 0.00 0.00 100 1017.4
20260505073242 13 224 0.0 0.0 0.00 0.00 0.00 100 1017.4
20260505073143 13 224 0.0 0.0 0.00 0.00 0.00 100 1017.4
20260505073044 13 224 0.0 0.0 0.00 0.00 0.00 100 1017.4
20260505072942 13 224 0.0 0.0 0.00 0.00 0.00 100 1017.4
20260505072844 13 224 0.0 0.0 0.00 0.00 0.00 100 1017.4
20260505072743 13 224 0.0 0.0 0.00 0.00 0.00 100 1017.4
20260505072642 13 224 0.0 0.0 0.00 0.00 0.00 100 1017.4
20260505072541 13 224 0.0 0.0 0.00 0.00 0.00 100 1017.4
20260505072441 13 224 0.0 0.0 0.00 0.00 0.00 100 1017.4
20260505072339 13 224 0.0 0.0 0.00 0.00 0.00 100 1017.4
20260505072240 13 224 0.0 0.0 0.00 0.00 0.00 100 1017.4
20260505072137 13 224 0.0 0.0 0.00 0.00 0.00 100 1017.4
20260505072038 13 224 0.0 0.0 0.00 0.00 0.00 100 1017.4
20260505071938 13 224 0.0 0.0 0.00 0.00 0.00 100 1017.4
20260505071835 13 224 0.0 0.0 0.00 0.00 0.00 100 1017.3
20260505071736 13 224 0.0 0.0 0.00 0.00 0.00 100 1017.3
20260505071634 13 224 0.0 0.0 0.00 0.00 0.00 100 1017.3
20260505071533 13 224 0.0 0.0 0.00 0.00 0.00 100 1017.4
20260505071433 13 224 0.0 0.0 0.00 0.00 0.00 100 1017.3
20260505071332 13 224 0.0 0.0 0.00 0.00 0.00 100 1017.3
20260505071230 13 224 0.0 0.0 0.00 0.00 0.00 100 1017.3
20260505071130 13 224 0.0 0.0 0.00 0.00 0.00 100 1017.3
20260505071028 13 224 0.0 0.0 0.00 0.00 0.00 100 1017.3
20260505070928 13 224 0.0 0.0 0.00 0.00 0.00 100 1017.4
20260505070826 13 224 0.0 0.0 0.00 0.00 0.00 100 1017.3
20260505070726 13 224 0.0 0.0 0.00 0.00 0.00 100 1017.3
20260505070625 13 224 0.0 0.0 0.00 0.00 0.00 100 1017.3
20260505070526 13 224 0.0 0.0 0.00 0.00 0.00 100 1017.3
20260505070425 13 224 0.0 0.0 0.00 0.00 0.00 100 1017.3
20260505070324 13 224 0.0 0.0 0.00 0.00 0.00 100 1017.4
20260505070221 13 224 0.0 0.0 0.00 0.00 0.00 100 1017.5
20260505070121 13 224 0.0 0.0 0.00 0.00 0.00 100 1017.3
20260505070021 13 224 0.0 0.0 0.00 0.00 0.00 100 1017.4
20260505065923 13 224 0.0 0.0 0.00 0.00 0.00 100 1017.5
20260505065822 13 224 0.0 0.0 0.00 0.00 0.00 100 1017.5
20260505065720 14 224 0.0 0.0 0.00 0.00 0.00 100 1017.4
20260505065617 14 224 0.0 0.0 0.00 0.00 0.00 100 1017.5
20260505065518 14 224 0.0 0.0 0.00 0.00 0.00 100 1017.5
20260505065417 14 224 0.0 0.0 0.00 0.00 0.00 100 1017.6
20260505065317 14 224 0.0 0.0 0.00 0.00 0.00 100 1017.6
20260505065216 14 224 0.0 0.0 0.00 0.00 0.00 100 1017.5
20260505065115 14 224 0.0 0.0 0.00 0.00 0.00 100 1017.5
20260505065016 14 224 0.0 0.0 0.00 0.00 0.00 100 1017.5
20260505064916 14 224 0.0 0.0 0.00 0.00 0.00 100 1017.4
20260505064816 14 224 0.0 0.0 0.00 0.00 0.00 100 1017.4
20260505064714 14 224 0.0 0.0 0.00 0.00 0.00 100 1017.5
20260505064615 14 224 0.0 0.0 0.00 0.00 0.00 100 1017.4
20260505064515 14 224 0.0 0.0 0.00 0.00 0.00 100 1017.4
20260505064414 14 224 0.0 0.0 0.00 0.00 0.00 100 1017.4
20260505064316 14 224 0.0 0.0 0.00 0.00 0.00 100 1017.5
20260505064216 14 224 0.0 0.0 0.00 0.00 0.00 100 1017.5
20260505064116 14 224 0.0 0.0 0.00 0.00 0.00 100 1017.5
20260505064016 14 224 0.0 0.0 0.00 0.00 0.00 100 1017.5
20260505063915 14 224 0.0 0.0 0.00 0.00 0.00 100 1017.5
20260505063813 14 224 0.0 0.0 0.00 0.00 0.00 100 1017.5
20260505063713 14 224 0.0 0.0 0.00 0.00 0.00 100 1017.6
20260505063614 14 224 0.0 0.0 0.00 0.00 0.00 100 1017.6
20260505063513 14 224 0.0 0.0 0.00 0.00 0.00 100 1017.5
20260505063412 14 224 0.0 0.0 0.00 0.00 0.00 100 1017.5
20260505063312 14 224 0.0 0.0 0.00 0.00 0.00 100 1017.5
20260505063213 14 224 0.0 0.0 0.00 0.00 0.00 100 1017.6
20260505063114 14 224 0.0 0.0 0.00 0.00 0.00 100 1017.6
20260505063014 14 224 0.0 0.0 0.00 0.00 0.00 100 1017.6
20260505062913 14 224 0.0 0.0 0.00 0.00 0.00 100 1017.6
20260505062813 14 224 0.0 0.0 0.00 0.00 0.00 100 1017.5
20260505062714 14 224 0.0 0.0 0.00 0.00 0.00 100 1017.5
20260505062612 15 224 0.0 0.0 0.00 0.00 0.00 100 1017.5
20260505062511 15 224 0.0 0.0 0.00 0.00 0.00 100 1017.5
20260505062411 15 224 0.0 0.0 0.00 0.00 0.00 100 1017.5
20260505062312 15 224 0.0 0.0 0.00 0.00 0.00 100 1017.5
20260505062210 15 224 0.0 0.0 0.00 0.00 0.00 100 1017.6
20260505062111 15 224 0.0 0.0 0.00 0.00 0.00 100 1017.6
20260505062010 15 224 0.0 0.0 0.00 0.00 0.00 100 1017.4
20260505061910 15 224 0.0 0.0 0.00 0.00 0.00 100 1017.6
20260505061811 15 224 0.0 0.0 0.00 0.00 0.00 100 1017.5
20260505061710 15 224 0.0 0.0 0.00 0.00 0.00 100 1017.7
20260505061613 15 224 0.0 0.0 0.00 0.00 0.00 100 1017.6
20260505061512 15 224 0.0 0.0 0.00 0.00 0.00 100 1017.6
20260505061415 15 224 0.0 0.0 0.00 0.00 0.00 100 1017.6
20260505061401 15 224 0.0 0.0 0.00 0.00 0.00 100 1017.5
20260505061209 15 224 0.0 0.0 0.00 0.00 0.00 100 1017.7
20260505061110 15 224 0.0 0.0 0.00 0.00 0.00 100 1017.7
20260505061010 15 224 0.0 0.0 0.00 0.00 0.00 100 1017.6
20260505060914 15 224 0.0 0.0 0.00 0.00 0.00 100 1017.7
20260505060900 15 224 0.0 0.0 0.00 0.00 0.00 100 1017.7
20260505060710 15 224 0.0 0.0 0.00 0.00 0.00 100 1017.8
20260505060609 15 224 0.0 0.0 0.00 0.00 0.00 100 1017.7
20260505060509 15 224 0.0 0.0 0.00 0.00 0.00 100 1017.8
20260505060413 15 224 0.0 0.0 0.00 0.00 0.00 100 1017.8
20260505060358 15 224 0.0 0.0 0.00 0.00 0.00 100 1017.9
20260505060208 15 224 0.0 0.0 0.00 0.00 0.00 100 1017.9
20260505060107 15 224 0.0 0.0 0.00 0.00 0.00 100 1017.9
20260505060008 15 224 0.0 0.0 0.00 0.00 0.00 100 1017.8
20260505055907 15 224 0.0 0.0 0.00 0.00 0.00 100 1017.9
20260505055808 15 224 0.0 0.0 0.00 0.00 0.00 100 1017.9
20260505055707 15 224 0.0 0.0 0.00 0.00 0.00 100 1018.0
20260505055608 15 224 0.0 0.0 0.00 0.00 0.00 100 1017.9
20260505055506 15 224 0.0 0.0 0.00 0.00 0.00 100 1018.0
20260505055408 15 224 0.0 0.0 0.00 0.00 0.00 100 1018.0
20260505055307 15 224 0.0 0.0 0.00 0.00 0.00 100 1017.9
20260505055206 15 224 0.0 0.0 0.00 0.00 0.00 100 1018.0
20260505055107 15 224 0.0 0.0 0.00 0.00 0.00 100 1018.0
20260505055007 15 224 0.0 0.0 0.00 0.00 0.00 100 1017.9
20260505054906 15 224 0.0 1.6 0.00 0.00 0.00 100 1018.0
20260505054808 15 224 0.0 1.6 0.00 0.00 0.00 100 1018.0
20260505054707 15 224 0.0 1.6 0.00 0.00 0.00 100 1017.9
20260505054608 15 224 0.0 1.6 0.00 0.00 0.00 100 1017.9
20260505054507 15 224 0.0 1.6 0.00 0.00 0.00 100 1018.0
20260505054408 15 224 0.0 4.8 0.00 0.00 0.00 100 1018.0
20260505054307 15 224 0.0 4.8 0.00 0.00 0.00 100 1017.9
20260505054208 15 224 1.6 4.8 0.00 0.00 0.00 100 1018.0
20260505054105 16 224 1.6 4.8 0.00 0.00 0.00 100 1018.0
20260505054002 16 224 1.6 6.4 0.00 0.00 0.00 100 1018.0
20260505053911 16 224 3.2 6.4 0.00 0.00 0.00 100 1018.0
20260505053857 16 224 3.2 6.4 0.00 0.00 0.00 100 1018.0
20260505053703 16 224 3.2 6.4 0.00 0.00 0.00 100 1018.1
20260505053601 16 224 3.2 6.4 0.00 0.00 0.00 100 1018.0
20260505053503 16 224 3.2 6.4 0.00 0.00 0.00 100 1018.1
20260505053401 16 224 3.2 6.4 0.00 0.00 0.00 100 1018.0
20260505053303 16 224 3.2 6.4 0.00 0.00 0.00 100 1018.0
20260505053201 16 224 3.2 6.4 0.00 0.00 0.00 100 1018.0
20260505053103 16 224 3.2 6.4 0.00 0.00 0.00 100 1018.0
20260505053002 16 224 3.2 4.8 0.00 0.00 0.00 100 1018.0
20260505052903 16 224 1.6 4.8 0.00 0.00 0.00 100 1018.1
20260505052801 15 224 1.6 4.8 0.00 0.00 0.00 100 1018.0
20260505052703 15 224 1.6 4.8 0.00 0.00 0.00 100 1018.1
20260505052601 15 224 1.6 4.8 0.00 0.00 0.00 100 1018.1
20260505052503 15 224 0.0 4.8 0.00 0.00 0.00 100 1018.0
20260505052402 15 224 0.0 4.8 0.00 0.00 0.00 100 1018.0
20260505052301 15 224 0.0 4.8 0.00 0.00 0.00 100 1018.0
20260505052204 15 224 0.0 0.0 0.00 0.00 0.00 100 1018.0
20260505052103 15 224 0.0 0.0 0.00 0.00 0.00 100 1018.0
20260505052002 15 224 0.0 0.0 0.00 0.00 0.00 100 1018.0
20260505051901 15 224 0.0 0.0 0.00 0.00 0.00 100 1018.0
20260505051802 15 224 0.0 0.0 0.00 0.00 0.00 100 1018.1
20260505051703 15 224 0.0 0.0 0.00 0.00 0.00 100 1018.1
20260505051602 15 224 0.0 0.0 0.00 0.00 0.00 100 1018.0
20260505051502 16 224 0.0 0.0 0.00 0.00 0.00 100 1018.1
20260505051401 16 224 0.0 0.0 0.00 0.00 0.00 100 1018.1
20260505051303 16 224 0.0 0.0 0.00 0.00 0.00 100 1018.1
20260505051202 16 224 0.0 0.0 0.00 0.00 0.00 100 1018.2
20260505051102 16 224 0.0 0.0 0.00 0.00 0.00 100 1018.1
20260505051002 16 224 0.0 0.0 0.00 0.00 0.00 100 1018.0
20260505050903 16 224 0.0 1.6 0.00 0.00 0.00 100 1018.1
20260505050802 16 224 0.0 3.2 0.00 0.00 0.00 100 1018.1
20260505050702 16 224 0.0 3.2 0.00 0.00 0.00 100 1018.0
20260505050602 16 224 1.6 3.2 0.00 0.00 0.00 100 1018.0
20260505050503 16 224 1.6 4.8 0.00 0.00 0.00 100 1018.0
20260505050401 16 224 1.6 4.8 0.00 0.00 0.00 100 1018.1
20260505050302 16 224 1.6 4.8 0.00 0.00 0.00 100 1018.1
20260505050202 16 224 1.6 4.8 0.00 0.00 0.00 100 1018.1
20260505050103 16 224 1.6 4.8 0.00 0.00 0.00 100 1018.1